Observation data for Weinert on 01/09/2018      Previous  Date  Next       Current Mesonet Observations  Soil Data  Daily Summary Page  Observations in Plain Language
KWE1 090600Z 16007KT 06/M03 A3015 RMK A01 T00591034  RH  051%=      5-min Rain = 0
KWE1 090601Z 16008KT 06/M03 A3015 RMK A01 T00591034  RH  051%=      5-min Rain = 0
KWE1 090602Z 16008KT 06/M03 A3015 RMK A01 T00591033  RH  051%=      5-min Rain = 0
KWE1 090603Z 16008KT 06/M03 A3015 RMK A01 T00591033  RH  051%=      5-min Rain = 0
KWE1 090604Z 16008KT 06/M03 A3015 RMK A01 T00591033  RH  052%=      5-min Rain = 0
KWE1 090605Z 16008KT 06/M03 A3015 RMK A01 T00591033  RH  051%=      5-min Rain = 0
KWE1 090606Z 16008KT 06/M03 A3015 RMK A01 T00591033  RH  051%=      5-min Rain = 0
KWE1 090607Z 16008KT 06/M03 A3015 RMK A01 T00591034  RH  051%=      5-min Rain = 0
KWE1 090608Z 17008KT 06/M03 A3015 RMK A01 T00601033  RH  051%=      5-min Rain = 0
KWE1 090609Z 17007KT 06/M03 A3015 RMK A01 T00591034  RH  052%=      5-min Rain = 0
KWE1 090610Z 17007KT 06/M03 A3015 RMK A01 T00581034  RH  052%=      5-min Rain = 0
KWE1 090611Z 16007KT 06/M03 A3014 RMK A01 T00571033  RH  052%=      5-min Rain = 0
KWE1 090612Z 16007KT 06/M03 A3014 RMK A01 T00571033  RH  052%=      5-min Rain = 0
KWE1 090613Z 16008KT 06/M03 A3014 RMK A01 T00561033  RH  053%=      5-min Rain = 0
KWE1 090614Z 16007KT 06/M03 A3014 RMK A01 T00561033  RH  053%=      5-min Rain = 0
KWE1 090615Z 16007KT 06/M03 A3014 RMK A01 T00561033  RH  053%=      5-min Rain = 0
KWE1 090616Z 17007KT 06/M03 A3014 RMK A01 T00561033  RH  053%=      5-min Rain = 0
KWE1 090617Z 16006KT 06/M03 A3014 RMK A01 T00571032  RH  053%=      5-min Rain = 0
KWE1 090618Z 16006KT 06/M03 A3014 RMK A01 T00571032  RH  053%=      5-min Rain = 0
KWE1 090619Z 16006KT 06/M03 A3014 RMK A01 T00571032  RH  053%=      5-min Rain = 0
KWE1 090620Z 16007KT 06/M03 A3014 RMK A01 T00571033  RH  053%=      5-min Rain = 0
KWE1 090621Z 16008KT 06/M03 A3014 RMK A01 T00571033  RH  053%=      5-min Rain = 0
KWE1 090622Z 16008KT 06/M03 A3014 RMK A01 T00561033  RH  053%=      5-min Rain = 0
KWE1 090623Z 17008KT 06/M03 A3014 RMK A01 T00561033  RH  053%=      5-min Rain = 0
KWE1 090624Z 17008KT 06/M03 A3014 RMK A01 T00571032  RH  053%=      5-min Rain = 0
KWE1 090625Z 16007KT 06/M03 A3014 RMK A01 T00571032  RH  053%=      5-min Rain = 0
KWE1 090626Z 16008KT 06/M03 A3014 RMK A01 T00581032  RH  052%=      5-min Rain = 0
KWE1 090627Z 16007KT 06/M03 A3014 RMK A01 T00581032  RH  052%=      5-min Rain = 0
KWE1 090628Z 16007KT 06/M03 A3014 RMK A01 T00591032  RH  052%=      5-min Rain = 0
KWE1 090629Z 16008KT 06/M03 A3014 RMK A01 T00591033  RH  052%=      5-min Rain = 0
KWE1 090630Z 16007KT 06/M03 A3014 RMK A01 T00581033  RH  052%=      5-min Rain = 0
KWE1 090631Z 16008KT 06/M03 A3014 RMK A01 T00581033  RH  052%=      5-min Rain = 0
KWE1 090632Z 16007KT 06/M03 A3014 RMK A01 T00581032  RH  052%=      5-min Rain = 0
KWE1 090633Z 15007KT 06/M03 A3014 RMK A01 T00591032  RH  052%=      5-min Rain = 0
KWE1 090634Z 15006KT 06/M03 A3014 RMK A01 T00591033  RH  052%=      5-min Rain = 0
KWE1 090635Z 16007KT 06/M03 A3014 RMK A01 T00591033  RH  052%=      5-min Rain = 0
KWE1 090636Z 15007KT 06/M03 A3014 RMK A01 T00581034  RH  052%=      5-min Rain = 0
KWE1 090637Z 15007KT 06/M03 A3013 RMK A01 T00571034  RH  052%=      5-min Rain = 0
KWE1 090638Z 15006KT 06/M03 A3013 RMK A01 T00561034  RH  052%=      5-min Rain = 0
KWE1 090639Z 15007KT 06/M04 A3013 RMK A01 T00551035  RH  052%=      5-min Rain = 0
KWE1 090640Z 15007KT 05/M04 A3013 RMK A01 T00541035  RH  053%=      5-min Rain = 0
KWE1 090641Z 15006KT 05/M03 A3013 RMK A01 T00541034  RH  053%=      5-min Rain = 0
KWE1 090642Z 15006KT 05/M03 A3013 RMK A01 T00531034  RH  053%=      5-min Rain = 0
KWE1 090643Z 15005KT 05/M03 A3013 RMK A01 T00531034  RH  054%=      5-min Rain = 0
KWE1 090644Z 15006KT 05/M03 A3013 RMK A01 T00531034  RH  054%=      5-min Rain = 0
KWE1 090645Z 15006KT 05/M03 A3013 RMK A01 T00531034  RH  054%=      5-min Rain = 0
KWE1 090646Z 15006KT 05/M03 A3013 RMK A01 T00541033  RH  053%=      5-min Rain = 0
KWE1 090647Z 15006KT 05/M03 A3013 RMK A01 T00541033  RH  053%=      5-min Rain = 0
KWE1 090648Z 15007KT 05/M03 A3013 RMK A01 T00541033  RH  053%=      5-min Rain = 0
KWE1 090649Z 15007KT 05/M03 A3013 RMK A01 T00531033  RH  054%=      5-min Rain = 0
KWE1 090650Z 15007KT 05/M03 A3013 RMK A01 T00541033  RH  054%=      5-min Rain = 0
KWE1 090651Z 15007KT 05/M03 A3013 RMK A01 T00541032  RH  054%=      5-min Rain = 0
KWE1 090652Z 15008KT 05/M03 A3013 RMK A01 T00541032  RH  054%=      5-min Rain = 0
KWE1 090653Z 15008KT 06/M03 A3013 RMK A01 T00551032  RH  053%=      5-min Rain = 0
KWE1 090654Z 15008KT 06/M03 A3013 RMK A01 T00551032  RH  053%=      5-min Rain = 0
KWE1 090655Z 15007KT 06/M03 A3013 RMK A01 T00551032  RH  053%=      5-min Rain = 0
KWE1 090656Z 15008KT 06/M03 A3013 RMK A01 T00551032  RH  053%=      5-min Rain = 0
KWE1 090657Z 15008KT 06/M03 A3013 RMK A01 T00551032  RH  053%=      5-min Rain = 0
KWE1 090658Z 15009KT 06/M03 A3013 RMK A01 T00551032  RH  053%=      5-min Rain = 0
KWE1 090659Z 15009KT 06/M03 A3013 RMK A01 T00561032  RH  053%=      5-min Rain = 0
KWE1 090700Z 15009KT 06/M03 A3013 RMK A01 T00571031  RH  053%=      5-min Rain = 0
KWE1 090701Z 14009KT 06/M03 A3013 RMK A01 T00581030  RH  053%=      5-min Rain = 0
KWE1 090702Z 15009KT 06/M03 A3013 RMK A01 T00591030  RH  053%=      5-min Rain = 0
KWE1 090703Z 14009KT 06/M03 A3013 RMK A01 T00611029  RH  052%=      5-min Rain = 0
KWE1 090704Z 14009KT 06/M03 A3012 RMK A01 T00621029  RH  052%=      5-min Rain = 0
KWE1 090705Z 14008KT 06/M03 A3012 RMK A01 T00631029  RH  052%=      5-min Rain = 0
KWE1 090706Z 15008KT 06/M03 A3012 RMK A01 T00631029  RH  052%=      5-min Rain = 0
KWE1 090707Z 15008KT 06/M03 A3012 RMK A01 T00631029  RH  052%=      5-min Rain = 0
KWE1 090708Z 15009KT 06/M03 A3012 RMK A01 T00631029  RH  052%=      5-min Rain = 0
KWE1 090709Z 15008KT 06/M03 A3012 RMK A01 T00641029  RH  052%=      5-min Rain = 0
KWE1 090710Z 15008KT 06/M03 A3012 RMK A01 T00641029  RH  051%=      5-min Rain = 0
KWE1 090711Z 15008KT 06/M03 A3012 RMK A01 T00641029  RH  051%=      5-min Rain = 0
KWE1 090712Z 15008KT 06/M03 A3012 RMK A01 T00641029  RH  051%=      5-min Rain = 0
KWE1 090713Z 15009KT 07/M03 A3012 RMK A01 T00651029  RH  051%=      5-min Rain = 0
KWE1 090714Z 15008KT 07/M03 A3012 RMK A01 T00651028  RH  051%=      5-min Rain = 0
KWE1 090715Z 15008KT 07/M03 A3012 RMK A01 T00651028  RH  051%=      5-min Rain = 0
KWE1 090716Z 15008KT 07/M03 A3012 RMK A01 T00651028  RH  051%=      5-min Rain = 0
KWE1 090717Z 15008KT 07/M03 A3012 RMK A01 T00661028  RH  051%=      5-min Rain = 0
KWE1 090718Z 15008KT 07/M03 A3012 RMK A01 T00651029  RH  051%=      5-min Rain = 0
KWE1 090719Z 15008KT 07/M03 A3012 RMK A01 T00661028  RH  051%=      5-min Rain = 0
KWE1 090720Z 15008KT 07/M03 A3012 RMK A01 T00661028  RH  051%=      5-min Rain = 0
KWE1 090721Z 15009KT 07/M03 A3012 RMK A01 T00661028  RH  051%=      5-min Rain = 0
KWE1 090722Z 15009KT 07/M03 A3012 RMK A01 T00661029  RH  051%=      5-min Rain = 0
KWE1 090723Z 15009KT 07/M03 A3012 RMK A01 T00661029  RH  051%=      5-min Rain = 0
KWE1 090724Z 14009KT 07/M03 A3012 RMK A01 T00661029  RH  051%=      5-min Rain = 0
KWE1 090725Z 14008KT 07/M03 A3012 RMK A01 T00661029  RH  051%=      5-min Rain = 0
KWE1 090726Z 14009KT 07/M03 A3012 RMK A01 T00661029  RH  051%=      5-min Rain = 0
KWE1 090727Z 15008KT 07/M03 A3012 RMK A01 T00651030  RH  051%=      5-min Rain = 0
KWE1 090728Z 15008KT 06/M03 A3011 RMK A01 T00641030  RH  051%=      5-min Rain = 0
KWE1 090729Z 15008KT 06/M03 A3011 RMK A01 T00641030  RH  051%=      5-min Rain = 0
KWE1 090730Z 15008KT 06/M03 A3011 RMK A01 T00631030  RH  051%=      5-min Rain = 0
KWE1 090731Z 15009KT 06/M03 A3011 RMK A01 T00621030  RH  052%=      5-min Rain = 0
KWE1 090732Z 15008KT 06/M03 A3011 RMK A01 T00621030  RH  052%=      5-min Rain = 0
KWE1 090733Z 15008KT 06/M03 A3011 RMK A01 T00621030  RH  052%=      5-min Rain = 0
KWE1 090734Z 15008KT 06/M03 A3011 RMK A01 T00621030  RH  052%=      5-min Rain = 0
KWE1 090735Z 15008KT 06/M03 A3011 RMK A01 T00621029  RH  052%=      5-min Rain = 0
KWE1 090736Z 15008KT 06/M03 A3011 RMK A01 T00621029  RH  052%=      5-min Rain = 0
KWE1 090737Z 15008KT 06/M03 A3011 RMK A01 T00631029  RH  052%=      5-min Rain = 0
KWE1 090738Z 15008KT 06/M03 A3011 RMK A01 T00631029  RH  052%=      5-min Rain = 0
KWE1 090739Z 15008KT 06/M03 A3011 RMK A01 T00631029  RH  052%=      5-min Rain = 0
KWE1 090740Z 15008KT 06/M03 A3011 RMK A01 T00631029  RH  052%=      5-min Rain = 0
KWE1 090741Z 15007KT 06/M03 A3011 RMK A01 T00631029  RH  052%=      5-min Rain = 0
KWE1 090742Z 15007KT 06/M03 A3011 RMK A01 T00631029  RH  052%=      5-min Rain = 0
KWE1 090743Z 16007KT 06/M03 A3011 RMK A01 T00611030  RH  052%=      5-min Rain = 0
KWE1 090744Z 16008KT 06/M03 A3011 RMK A01 T00591031  RH  052%=      5-min Rain = 0
KWE1 090745Z 16008KT 06/M03 A3011 RMK A01 T00591031  RH  052%=      5-min Rain = 0
KWE1 090746Z 15008KT 06/M03 A3011 RMK A01 T00591031  RH  053%=      5-min Rain = 0
KWE1 090747Z 15008KT 06/M03 A3011 RMK A01 T00591030  RH  053%=      5-min Rain = 0
KWE1 090748Z 15008KT 06/M03 A3011 RMK A01 T00591031  RH  053%=      5-min Rain = 0
KWE1 090749Z 15008KT 06/M03 A3011 RMK A01 T00581031  RH  053%=      5-min Rain = 0
KWE1 090750Z 15008KT 06/M03 A3011 RMK A01 T00581031  RH  053%=      5-min Rain = 0
KWE1 090751Z 16008KT 06/M03 A3011 RMK A01 T00571031  RH  053%=      5-min Rain = 0
KWE1 090752Z 16007KT 06/M03 A3011 RMK A01 T00571031  RH  053%=      5-min Rain = 0
KWE1 090753Z 16007KT 06/M03 A3011 RMK A01 T00571031  RH  053%=      5-min Rain = 0
KWE1 090754Z 16007KT 06/M03 A3011 RMK A01 T00561031  RH  053%=      5-min Rain = 0
KWE1 090755Z 16007KT 06/M03 A3011 RMK A01 T00551032  RH  053%=      5-min Rain = 0
KWE1 090756Z 16007KT 05/M03 A3011 RMK A01 T00541032  RH  054%=      5-min Rain = 0
KWE1 090757Z 16006KT 05/M03 A3011 RMK A01 T00531033  RH  054%=      5-min Rain = 0
KWE1 090758Z 16006KT 05/M03 A3011 RMK A01 T00521033  RH  054%=      5-min Rain = 0
KWE1 090759Z 17006KT 05/M03 A3011 RMK A01 T00501033  RH  055%=      5-min Rain = 0
KWE1 090800Z 17006KT 05/M03 A3011 RMK A01 T00491034  RH  055%=      5-min Rain = 0
KWE1 090801Z 17005KT 05/M03 A3011 RMK A01 T00481034  RH  055%=      5-min Rain = 0
KWE1 090802Z 17006KT 05/M04 A3011 RMK A01 T00471035  RH  056%=      5-min Rain = 0
KWE1 090803Z 16006KT 05/M04 A3011 RMK A01 T00461035  RH  056%=      5-min Rain = 0
KWE1 090804Z 17006KT 04/M04 A3011 RMK A01 T00441035  RH  056%=      5-min Rain = 0
KWE1 090805Z 17005KT 04/M04 A3011 RMK A01 T00431036  RH  056%=      5-min Rain = 0
KWE1 090806Z 18005KT 04/M04 A3011 RMK A01 T00411037  RH  057%=      5-min Rain = 0
KWE1 090807Z 18006KT 04/M04 A3011 RMK A01 T00391038  RH  057%=      5-min Rain = 0
KWE1 090808Z 18006KT 04/M04 A3011 RMK A01 T00381038  RH  058%=      5-min Rain = 0
KWE1 090809Z 19004KT 04/M04 A3011 RMK A01 T00371037  RH  058%=      5-min Rain = 0
KWE1 090810Z 18004KT 04/M04 A3011 RMK A01 T00371036  RH  059%=      5-min Rain = 0
KWE1 090811Z 18003KT 04/M04 A3011 RMK A01 T00381035  RH  059%=      5-min Rain = 0
KWE1 090812Z 18002KT 04/M03 A3011 RMK A01 T00391034  RH  059%=      5-min Rain = 0
KWE1 090813Z 18003KT 04/M04 A3011 RMK A01 T00391035  RH  059%=      5-min Rain = 0
KWE1 090814Z 18004KT 04/M03 A3011 RMK A01 T00401034  RH  059%=      5-min Rain = 0
KWE1 090815Z 17005KT 04/M03 A3011 RMK A01 T00401034  RH  059%=      5-min Rain = 0
KWE1 090816Z 17006KT 04/M03 A3011 RMK A01 T00401034  RH  058%=      5-min Rain = 0
KWE1 090817Z 17006KT 04/M04 A3011 RMK A01 T00401035  RH  058%=      5-min Rain = 0
KWE1 090818Z 17006KT 04/M03 A301 RMK A01 T00391034  RH  059%=      5-min Rain = 0
KWE1 090819Z 17006KT 04/M03 A301 RMK A01 T00391034  RH  059%=      5-min Rain = 0
KWE1 090820Z 17005KT 04/M03 A301 RMK A01 T00391034  RH  059%=      5-min Rain = 0
KWE1 090821Z 17005KT 04/M03 A301 RMK A01 T00391034  RH  059%=      5-min Rain = 0
KWE1 090822Z 17005KT 04/M04 A301 RMK A01 T00391035  RH  059%=      5-min Rain = 0
KWE1 090823Z 17005KT 04/M04 A301 RMK A01 T00381035  RH  059%=      5-min Rain = 0
KWE1 090824Z 17005KT 04/M03 A301 RMK A01 T00381034  RH  059%=      5-min Rain = 0
KWE1 090825Z 18005KT 04/M03 A301 RMK A01 T00381034  RH  059%=      5-min Rain = 0
KWE1 090826Z 17005KT 04/M04 A301 RMK A01 T00371035  RH  059%=      5-min Rain = 0
KWE1 090827Z 17005KT 04/M04 A301 RMK A01 T00361036  RH  059%=      5-min Rain = 0
KWE1 090828Z 17005KT 04/M04 A301 RMK A01 T00361035  RH  060%=      5-min Rain = 0
KWE1 090829Z 16005KT 04/M03 A301 RMK A01 T00361034  RH  060%=      5-min Rain = 0
KWE1 090830Z 16005KT 04/M04 A301 RMK A01 T00371035  RH  060%=      5-min Rain = 0
KWE1 090831Z 16006KT 04/M04 A301 RMK A01 T00361035  RH  059%=      5-min Rain = 0
KWE1 090832Z 16006KT 04/M04 A301 RMK A01 T00361035  RH  060%=      5-min Rain = 0
KWE1 090833Z 16007KT 04/M03 A3009 RMK A01 T00351034  RH  060%=      5-min Rain = 0
KWE1 090834Z 16008KT 04/M03 A3009 RMK A01 T00351034  RH  060%=      5-min Rain = 0
KWE1 090835Z 16009KT 04/M03 A3009 RMK A01 T00361033  RH  061%=      5-min Rain = 0
KWE1 090836Z 16009KT 04/M03 A3009 RMK A01 T00381031  RH  061%=      5-min Rain = 0
KWE1 090837Z 16009KT 04/M03 A3009 RMK A01 T00391031  RH  060%=      5-min Rain = 0
KWE1 090838Z 16009KT 04/M03 A3009 RMK A01 T00401031  RH  060%=      5-min Rain = 0
KWE1 090839Z 16010KT 04/M03 A3009 RMK A01 T00411031  RH  059%=      5-min Rain = 0
KWE1 090840Z 16009KT 04/M03 A3009 RMK A01 T00421031  RH  059%=      5-min Rain = 0
KWE1 090841Z 16009KT 04/M03 A3009 RMK A01 T00421031  RH  059%=      5-min Rain = 0
KWE1 090842Z 16009KT 04/M03 A3009 RMK A01 T00421032  RH  059%=      5-min Rain = 0
KWE1 090843Z 16008KT 04/M03 A3009 RMK A01 T00431031  RH  059%=      5-min Rain = 0
KWE1 090844Z 16008KT 04/M03 A3009 RMK A01 T00431031  RH  059%=      5-min Rain = 0
KWE1 090845Z 16008KT 04/M03 A3009 RMK A01 T00431031  RH  059%=      5-min Rain = 0
KWE1 090846Z 17008KT 04/M03 A3009 RMK A01 T00431031  RH  059%=      5-min Rain = 0
KWE1 090847Z 17008KT 04/M03 A3009 RMK A01 T00431031  RH  059%=      5-min Rain = 0
KWE1 090848Z 17007KT 04/M03 A3009 RMK A01 T00421031  RH  059%=      5-min Rain = 0
KWE1 090849Z 17007KT 04/M03 A3009 RMK A01 T00421031  RH  059%=      5-min Rain = 0
KWE1 090850Z 17007KT 04/M03 A3009 RMK A01 T00411031  RH  059%=      5-min Rain = 0
KWE1 090851Z 17007KT 04/M03 A3009 RMK A01 T00411031  RH  059%=      5-min Rain = 0
KWE1 090852Z 17008KT 04/M03 A3009 RMK A01 T00411030  RH  060%=      5-min Rain = 0
KWE1 090853Z 16008KT 04/M03 A3009 RMK A01 T00411030  RH  060%=      5-min Rain = 0
KWE1 090854Z 16008KT 04/M03 A3009 RMK A01 T00401030  RH  060%=      5-min Rain = 0
KWE1 090855Z 16008KT 04/M03 A3009 RMK A01 T00401030  RH  060%=      5-min Rain = 0
KWE1 090856Z 16008KT 04/M03 A3009 RMK A01 T00421028  RH  060%=      5-min Rain = 0
KWE1 090857Z 16008KT 04/M03 A3009 RMK A01 T00431028  RH  060%=      5-min Rain = 0
KWE1 090858Z 16007KT 04/M03 A3009 RMK A01 T00441028  RH  060%=      5-min Rain = 0
KWE1 090859Z 16007KT 04/M03 A3009 RMK A01 T00441028  RH  059%=      5-min Rain = 0
KWE1 090900Z 16007KT 04/M03 A3009 RMK A01 T00441028  RH  059%=      5-min Rain = 0
KWE1 090901Z 17007KT 04/M03 A3009 RMK A01 T00441028  RH  059%=      5-min Rain = 0
KWE1 090902Z 17007KT 04/M03 A3009 RMK A01 T00441029  RH  059%=      5-min Rain = 0
KWE1 090903Z 17009KT 05/M03 A3009 RMK A01 T00451028  RH  059%=      5-min Rain = 0
KWE1 090904Z 17008KT 05/M03 A3009 RMK A01 T00451028  RH  059%=      5-min Rain = 0
KWE1 090905Z 17008KT 05/M03 A3009 RMK A01 T00461027  RH  059%=      5-min Rain = 0
KWE1 090906Z 17007KT 05/M03 A3009 RMK A01 T00461028  RH  059%=      5-min Rain = 0
KWE1 090907Z 17007KT 05/M03 A3009 RMK A01 T00461028  RH  059%=      5-min Rain = 0
KWE1 090908Z 17007KT 05/M03 A3009 RMK A01 T00461027  RH  059%=      5-min Rain = 0
KWE1 090909Z 17008KT 05/M03 A3009 RMK A01 T00461028  RH  059%=      5-min Rain = 0
KWE1 090910Z 17008KT 05/M03 A3008 RMK A01 T00451028  RH  059%=      5-min Rain = 0
KWE1 090911Z 17008KT 05/M03 A3008 RMK A01 T00451028  RH  059%=      5-min Rain = 0
KWE1 090912Z 17008KT 05/M03 A3008 RMK A01 T00451027  RH  059%=      5-min Rain = 0
KWE1 090913Z 17008KT 05/M03 A3008 RMK A01 T00451027  RH  059%=      5-min Rain = 0
KWE1 090914Z 16007KT 05/M03 A3008 RMK A01 T00451027  RH  059%=      5-min Rain = 0
KWE1 090915Z 16007KT 05/M03 A3008 RMK A01 T00451027  RH  059%=      5-min Rain = 0
KWE1 090916Z 16007KT 05/M03 A3008 RMK A01 T00451027  RH  059%=      5-min Rain = 0
KWE1 090917Z 16007KT 05/M03 A3008 RMK A01 T00451027  RH  059%=      5-min Rain = 0
KWE1 090918Z 16007KT 05/M03 A3008 RMK A01 T00461027  RH  059%=      5-min Rain = 0
KWE1 090919Z 16007KT 05/M03 A3008 RMK A01 T00461026  RH  059%=      5-min Rain = 0
KWE1 090920Z 16007KT 05/M03 A3008 RMK A01 T00461026  RH  059%=      5-min Rain = 0
KWE1 090921Z 16008KT 05/M03 A3008 RMK A01 T00461026  RH  059%=      5-min Rain = 0
KWE1 090922Z 16008KT 05/M03 A3008 RMK A01 T00461026  RH  059%=      5-min Rain = 0
KWE1 090923Z 16008KT 05/M03 A3008 RMK A01 T00471026  RH  059%=      5-min Rain = 0
KWE1 090924Z 16009KT 05/M03 A3008 RMK A01 T00471026  RH  059%=      5-min Rain = 0
KWE1 090925Z 17009KT 05/M03 A3008 RMK A01 T00471026  RH  059%=      5-min Rain = 0
KWE1 090926Z 17009KT 05/M03 A3008 RMK A01 T00481026  RH  059%=      5-min Rain = 0
KWE1 090927Z 17009KT 05/M03 A3008 RMK A01 T00481026  RH  059%=      5-min Rain = 0
KWE1 090928Z 17008KT 05/M03 A3008 RMK A01 T00491025  RH  059%=      5-min Rain = 0
KWE1 090929Z 17008KT 05/M03 A3008 RMK A01 T00491025  RH  059%=      5-min Rain = 0
KWE1 090930Z 17009KT 05/M03 A3009 RMK A01 T00491026  RH  059%=      5-min Rain = 0
KWE1 090931Z 17009KT 05/M03 A3009 RMK A01 T00481026  RH  059%=      5-min Rain = 0
KWE1 090932Z 17009KT 05/M03 A3009 RMK A01 T00481025  RH  059%=      5-min Rain = 0
KWE1 090933Z 17009KT 05/M03 A3009 RMK A01 T00481025  RH  059%=      5-min Rain = 0
KWE1 090934Z 18009KT 05/M03 A3009 RMK A01 T00481025  RH  059%=      5-min Rain = 0
KWE1 090935Z 17009KT 05/M03 A3009 RMK A01 T00481025  RH  059%=      5-min Rain = 0
KWE1 090936Z 17009KT 05/M03 A3009 RMK A01 T00481025  RH  059%=      5-min Rain = 0
KWE1 090937Z 17008KT 05/M03 A3009 RMK A01 T00481026  RH  059%=      5-min Rain = 0
KWE1 090938Z 17008KT 05/M03 A3009 RMK A01 T00481025  RH  059%=      5-min Rain = 0
KWE1 090939Z 18008KT 05/M03 A3009 RMK A01 T00471026  RH  059%=      5-min Rain = 0
KWE1 090940Z 18007KT 05/M03 A301 RMK A01 T00461027  RH  059%=      5-min Rain = 0
KWE1 090941Z 18007KT 05/M03 A301 RMK A01 T00451027  RH  059%=      5-min Rain = 0
KWE1 090942Z 19006KT 04/M03 A301 RMK A01 T00431029  RH  060%=      5-min Rain = 0
KWE1 090943Z 19006KT 04/M03 A301 RMK A01 T00421028  RH  060%=      5-min Rain = 0
KWE1 090944Z 19006KT 04/M03 A301 RMK A01 T00421027  RH  061%=      5-min Rain = 0
KWE1 090945Z 19006KT 04/M03 A301 RMK A01 T00421027  RH  061%=      5-min Rain = 0
KWE1 090946Z 21004KT 04/M03 A301 RMK A01 T00431026  RH  061%=      5-min Rain = 0
KWE1 090947Z 22003KT 04/M03 A301 RMK A01 T00441027  RH  060%=      5-min Rain = 0
KWE1 090948Z 23003KT 04/M03 A301 RMK A01 T00421029  RH  060%=      5-min Rain = 0
KWE1 090949Z 22004KT 04/M03 A301 RMK A01 T00411031  RH  060%=      5-min Rain = 0
KWE1 090950Z 22004KT 04/M03 A301 RMK A01 T00401031  RH  060%=      5-min Rain = 0
KWE1 090951Z 22004KT 04/M03 A301 RMK A01 T00391030  RH  061%=      5-min Rain = 0
KWE1 090952Z 22003KT 04/M03 A301 RMK A01 T00401029  RH  061%=      5-min Rain = 0
KWE1 090953Z 22003KT 04/M03 A301 RMK A01 T00411027  RH  061%=      5-min Rain = 0
KWE1 090954Z 22002KT 04/M03 A301 RMK A01 T00431028  RH  060%=      5-min Rain = 0
KWE1 090955Z 23002KT 04/M03 A301 RMK A01 T00421030  RH  060%=      5-min Rain = 0
KWE1 090956Z 23002KT 04/M03 A301 RMK A01 T00401032  RH  060%=      5-min Rain = 0
KWE1 090957Z 21002KT 04/M03 A301 RMK A01 T00371034  RH  060%=      5-min Rain = 0
KWE1 090958Z 22002KT 04/M04 A301 RMK A01 T00351035  RH  060%=      5-min Rain = 0
KWE1 090959Z 22002KT 04/M03 A301 RMK A01 T00351034  RH  061%=      5-min Rain = 0
KWE1 091000Z 22003KT 03/M03 A301 RMK A01 T00341034  RH  061%=      5-min Rain = 0
KWE1 091001Z 22002KT 03/M03 A301 RMK A01 T00331034  RH  062%=      5-min Rain = 0
KWE1 091002Z 22003KT 03/M03 A301 RMK A01 T00331032  RH  062%=      5-min Rain = 0
KWE1 091003Z 21002KT 03/M03 A301 RMK A01 T00331031  RH  063%=      5-min Rain = 0
KWE1 091004Z 21002KT 03/M03 A301 RMK A01 T00331030  RH  063%=      5-min Rain = 0
KWE1 091005Z 21002KT 03/M03 A301 RMK A01 T00331030  RH  063%=      5-min Rain = 0
KWE1 091006Z 21003KT 03/M03 A301 RMK A01 T00321032  RH  063%=      5-min Rain = 0
KWE1 091007Z 21003KT 03/M03 A301 RMK A01 T00311034  RH  063%=      5-min Rain = 0
KWE1 091008Z 21004KT 03/M03 A301 RMK A01 T00291034  RH  063%=      5-min Rain = 0
KWE1 091009Z 20004KT 03/M03 A3009 RMK A01 T00291033  RH  064%=      5-min Rain = 0
KWE1 091010Z 20004KT 03/M03 A3009 RMK A01 T00281034  RH  064%=      5-min Rain = 0
KWE1 091011Z 20004KT 03/M04 A3009 RMK A01 T00261036  RH  064%=      5-min Rain = 0
KWE1 091012Z 20005KT 02/M04 A3009 RMK A01 T00231038  RH  064%=      5-min Rain = 0
KWE1 091013Z 20005KT 02/M04 A3009 RMK A01 T00211040  RH  064%=      5-min Rain = 0
KWE1 091014Z 20005KT 02/M04 A3009 RMK A01 T00191041  RH  065%=      5-min Rain = 0
KWE1 091015Z 20005KT 02/M04 A3009 RMK A01 T00181038  RH  066%=      5-min Rain = 0
KWE1 091016Z 20005KT 02/M04 A3009 RMK A01 T00181037  RH  067%=      5-min Rain = 0
KWE1 091017Z 19005KT 02/M04 A3009 RMK A01 T00191036  RH  067%=      5-min Rain = 0
KWE1 091018Z 19005KT 02/M04 A3009 RMK A01 T00191036  RH  067%=      5-min Rain = 0
KWE1 091019Z 19004KT 02/M04 A3009 RMK A01 T00201036  RH  067%=      5-min Rain = 0
KWE1 091020Z 19004KT 02/M04 A3009 RMK A01 T00201035  RH  067%=      5-min Rain = 0
KWE1 091021Z 19003KT 02/M04 A3009 RMK A01 T00211035  RH  067%=      5-min Rain = 0
KWE1 091022Z 19003KT 02/M03 A3009 RMK A01 T00211034  RH  067%=      5-min Rain = 0
KWE1 091023Z 19003KT 02/M03 A3009 RMK A01 T00221033  RH  067%=      5-min Rain = 0
KWE1 091024Z 18003KT 02/M04 A3009 RMK A01 T00221035  RH  066%=      5-min Rain = 0
KWE1 091025Z 18003KT 02/M04 A3008 RMK A01 T00221036  RH  065%=      5-min Rain = 0
KWE1 091026Z 16004KT 02/M04 A3008 RMK A01 T00221036  RH  066%=      5-min Rain = 0
KWE1 091027Z 16004KT 02/M04 A3008 RMK A01 T00211037  RH  066%=      5-min Rain = 0
KWE1 091028Z 17005KT 02/M04 A3008 RMK A01 T00221035  RH  066%=      5-min Rain = 0
KWE1 091029Z 17004KT 02/M03 A3008 RMK A01 T00231034  RH  066%=      5-min Rain = 0
KWE1 091030Z 17005KT 02/M03 A3008 RMK A01 T00241033  RH  066%=      5-min Rain = 0
KWE1 091031Z 17004KT 03/M03 A3008 RMK A01 T00251033  RH  066%=      5-min Rain = 0
KWE1 091032Z 17004KT 03/M03 A3008 RMK A01 T00251034  RH  065%=      5-min Rain = 0
KWE1 091033Z 16004KT 02/M04 A3008 RMK A01 T00241035  RH  065%=      5-min Rain = 0
KWE1 091034Z 17005KT 02/M04 A3008 RMK A01 T00231036  RH  065%=      5-min Rain = 0
KWE1 091035Z 16005KT 02/M04 A3008 RMK A01 T00231036  RH  065%=      5-min Rain = 0
KWE1 091036Z 16005KT 02/M04 A3008 RMK A01 T00221036  RH  065%=      5-min Rain = 0
KWE1 091037Z 16005KT 02/M04 A3008 RMK A01 T00211037  RH  065%=      5-min Rain = 0
KWE1 091038Z 16006KT 02/M04 A3008 RMK A01 T00201039  RH  065%=      5-min Rain = 0
KWE1 091039Z 16005KT 02/M04 A3008 RMK A01 T00191038  RH  066%=      5-min Rain = 0
KWE1 091040Z 16006KT 02/M04 A3008 RMK A01 T00181037  RH  067%=      5-min Rain = 0
KWE1 091041Z 17006KT 02/M04 A3008 RMK A01 T00191035  RH  067%=      5-min Rain = 0
KWE1 091042Z 17006KT 02/M03 A3008 RMK A01 T00201034  RH  067%=      5-min Rain = 0
KWE1 091043Z 18006KT 02/M03 A3008 RMK A01 T00201034  RH  067%=      5-min Rain = 0
KWE1 091044Z 17006KT 02/M03 A3008 RMK A01 T00211034  RH  067%=      5-min Rain = 0
KWE1 091045Z 17007KT 02/M03 A3008 RMK A01 T00221033  RH  067%=      5-min Rain = 0
KWE1 091046Z 18007KT 02/M03 A3008 RMK A01 T00231033  RH  067%=      5-min Rain = 0
KWE1 091047Z 18007KT 02/M03 A3008 RMK A01 T00231033  RH  067%=      5-min Rain = 0
KWE1 091048Z 18008KT 02/M03 A3008 RMK A01 T00231032  RH  067%=      5-min Rain = 0
KWE1 091049Z 17008KT 03/M03 A3008 RMK A01 T00251030  RH  067%=      5-min Rain = 0
KWE1 091050Z 17008KT 03/M03 A3008 RMK A01 T00251031  RH  067%=      5-min Rain = 0
KWE1 091051Z 17008KT 03/M03 A3008 RMK A01 T00261031  RH  066%=      5-min Rain = 0
KWE1 091052Z 17009KT 03/M03 A3008 RMK A01 T00271029  RH  067%=      5-min Rain = 0
KWE1 091053Z 17010KT 03/M03 A3008 RMK A01 T00281029  RH  066%=      5-min Rain = 0
KWE1 091054Z 16009KT 03/M03 A3008 RMK A01 T00301027  RH  066%=      5-min Rain = 0
KWE1 091055Z 16008KT 03/M03 A3007 RMK A01 T00331027  RH  065%=      5-min Rain = 0
KWE1 091056Z 16009KT 03/M03 A3007 RMK A01 T00341027  RH  064%=      5-min Rain = 0
KWE1 091057Z 16009KT 04/M03 A3007 RMK A01 T00351027  RH  064%=      5-min Rain = 0
KWE1 091058Z 16010KT 04/M03 A3007 RMK A01 T00361026  RH  064%=      5-min Rain = 0
KWE1 091059Z 17010KT 04/M03 A3007 RMK A01 T00371026  RH  063%=      5-min Rain = 0
KWE1 091100Z 16010KT 04/M03 A3007 RMK A01 T00391025  RH  063%=      5-min Rain = 0
KWE1 091101Z 16010KT 04/M03 A3007 RMK A01 T00401025  RH  062%=      5-min Rain = 0
KWE1 091102Z 16010KT 04/M03 A3007 RMK A01 T00411025  RH  062%=      5-min Rain = 0
KWE1 091103Z 16010KT 04/M03 A3007 RMK A01 T00421026  RH  061%=      5-min Rain = 0
KWE1 091104Z 16010KT 04/M03 A3007 RMK A01 T00421026  RH  061%=      5-min Rain = 0
KWE1 091105Z 16011KT 04/M03 A3007 RMK A01 T00431025  RH  061%=      5-min Rain = 0
KWE1 091106Z 16010KT 04/M03 A3007 RMK A01 T00441025  RH  061%=      5-min Rain = 0
KWE1 091107Z 17010KT 05/M02 A3007 RMK A01 T00451024  RH  061%=      5-min Rain = 0
KWE1 091108Z 17009KT 05/M02 A3007 RMK A01 T00461024  RH  061%=      5-min Rain = 0
KWE1 091109Z 17010KT 05/M02 A3007 RMK A01 T00461024  RH  060%=      5-min Rain = 0
KWE1 091110Z 17009KT 05/M02 A3007 RMK A01 T00471024  RH  060%=      5-min Rain = 0
KWE1 091111Z 17009KT 05/M02 A3007 RMK A01 T00471024  RH  060%=      5-min Rain = 0
KWE1 091112Z 17009KT 05/M03 A3007 RMK A01 T00471025  RH  060%=      5-min Rain = 0
KWE1 091113Z 17010KT 05/M02 A3007 RMK A01 T00471024  RH  060%=      5-min Rain = 0
KWE1 091114Z 17010KT 05/M02 A3007 RMK A01 T00471024  RH  060%=      5-min Rain = 0
KWE1 091115Z 17009KT 05/M02 A3007 RMK A01 T00481023  RH  060%=      5-min Rain = 0
KWE1 091116Z 17010KT 05/M02 A3007 RMK A01 T00481023  RH  060%=      5-min Rain = 0
KWE1 091117Z 17008KT 05/M02 A3007 RMK A01 T00481024  RH  060%=      5-min Rain = 0
KWE1 091118Z 16009KT 05/M02 A3007 RMK A01 T00481024  RH  060%=      5-min Rain = 0
KWE1 091119Z 17009KT 05/M02 A3007 RMK A01 T00481024  RH  060%=      5-min Rain = 0
KWE1 091120Z 17009KT 05/M02 A3007 RMK A01 T00481024  RH  060%=      5-min Rain = 0
KWE1 091121Z 17008KT 05/M02 A3007 RMK A01 T00481024  RH  060%=      5-min Rain = 0
KWE1 091122Z 17008KT 05/M03 A3008 RMK A01 T00471025  RH  060%=      5-min Rain = 0
KWE1 091123Z 17007KT 05/M03 A3008 RMK A01 T00461025  RH  060%=      5-min Rain = 0
KWE1 091124Z 17006KT 05/M03 A3008 RMK A01 T00461025  RH  060%=      5-min Rain = 0
KWE1 091125Z 17007KT 05/M03 A3008 RMK A01 T00451026  RH  060%=      5-min Rain = 0
KWE1 091126Z 17007KT 04/M03 A3008 RMK A01 T00431026  RH  061%=      5-min Rain = 0
KWE1 091127Z 17008KT 04/M03 A3008 RMK A01 T00431026  RH  061%=      5-min Rain = 0
KWE1 091128Z 17007KT 04/M03 A3008 RMK A01 T00431025  RH  061%=      5-min Rain = 0
KWE1 091129Z 16007KT 04/M03 A3008 RMK A01 T00431026  RH  061%=      5-min Rain = 0
KWE1 091130Z 17007KT 04/M03 A3008 RMK A01 T00421026  RH  061%=      5-min Rain = 0
KWE1 091131Z 17008KT 04/M03 A3008 RMK A01 T00421026  RH  061%=      5-min Rain = 0
KWE1 091132Z 16007KT 04/M03 A3008 RMK A01 T00421026  RH  061%=      5-min Rain = 0
KWE1 091133Z 16008KT 04/M03 A3008 RMK A01 T00421026  RH  061%=      5-min Rain = 0
KWE1 091134Z 17008KT 04/M03 A3008 RMK A01 T00411026  RH  061%=      5-min Rain = 0
KWE1 091135Z 17009KT 04/M03 A3008 RMK A01 T00411026  RH  062%=      5-min Rain = 0
KWE1 091136Z 17009KT 04/M03 A3007 RMK A01 T00421025  RH  062%=      5-min Rain = 0
KWE1 091137Z 16008KT 04/M03 A3008 RMK A01 T00431025  RH  062%=      5-min Rain = 0
KWE1 091138Z 17009KT 04/M03 A3008 RMK A01 T00431025  RH  061%=      5-min Rain = 0
KWE1 091139Z 17009KT 04/M03 A3008 RMK A01 T00441025  RH  061%=      5-min Rain = 0
KWE1 091140Z 17008KT 04/M03 A3008 RMK A01 T00441025  RH  061%=      5-min Rain = 0
KWE1 091141Z 17008KT 04/M03 A3008 RMK A01 T00431025  RH  061%=      5-min Rain = 0
KWE1 091142Z 17008KT 04/M03 A3008 RMK A01 T00431026  RH  061%=      5-min Rain = 0
KWE1 091143Z 16008KT 04/M03 A3008 RMK A01 T00431025  RH  061%=      5-min Rain = 0
KWE1 091144Z 17008KT 04/M03 A3008 RMK A01 T00431025  RH  061%=      5-min Rain = 0
KWE1 091145Z 16007KT 04/M03 A3008 RMK A01 T00431025  RH  061%=      5-min Rain = 0
KWE1 091146Z 16008KT 04/M03 A3008 RMK A01 T00431025  RH  061%=      5-min Rain = 0
KWE1 091147Z 16008KT 04/M03 A3008 RMK A01 T00431025  RH  061%=      5-min Rain = 0
KWE1 091148Z 16008KT 04/M02 A3008 RMK A01 T00441024  RH  061%=      5-min Rain = 0
KWE1 091149Z 16008KT 05/M02 A3008 RMK A01 T00451024  RH  061%=      5-min Rain = 0
KWE1 091150Z 17009KT 05/M02 A3008 RMK A01 T00461024  RH  061%=      5-min Rain = 0
KWE1 091151Z 16009KT 05/M02 A3008 RMK A01 T00461024  RH  061%=      5-min Rain = 0
KWE1 091152Z 16009KT 05/M02 A3008 RMK A01 T00461024  RH  060%=      5-min Rain = 0
KWE1 091153Z 16009KT 05/M02 A3008 RMK A01 T00461024  RH  060%=      5-min Rain = 0
KWE1 091154Z 16009KT 05/M02 A3008 RMK A01 T00461024  RH  061%=      5-min Rain = 0
KWE1 091155Z 16009KT 05/M02 A3008 RMK A01 T00471023  RH  061%=      5-min Rain = 0
KWE1 091156Z 16010KT 05/M02 A3008 RMK A01 T00471024  RH  060%=      5-min Rain = 0
KWE1 091157Z 16010KT 05/M02 A3007 RMK A01 T00481023  RH  060%=      5-min Rain = 0
KWE1 091158Z 16010KT 05/M02 A3007 RMK A01 T00481023  RH  060%=      5-min Rain = 0
KWE1 091159Z 16010KT 05/M02 A3007 RMK A01 T00481023  RH  060%=      5-min Rain = 0
KWE1 091200Z 16010KT 05/M02 A3007 RMK A01 T00481023  RH  060%=      5-min Rain = 0
KWE1 091201Z 16010KT 05/M02 A3007 RMK A01 T00481023  RH  060%=      5-min Rain = 0
KWE1 091202Z 16009KT 05/M02 A3007 RMK A01 T00501022  RH  060%=      5-min Rain = 0
KWE1 091203Z 16010KT 05/M02 A3007 RMK A01 T00501022  RH  059%=      5-min Rain = 0
KWE1 091204Z 16009KT 05/M02 A3007 RMK A01 T00501022  RH  060%=      5-min Rain = 0
KWE1 091205Z 16010KT 05/M02 A3007 RMK A01 T00511022  RH  059%=      5-min Rain = 0
KWE1 091206Z 16010KT 05/M02 A3007 RMK A01 T00511022  RH  059%=      5-min Rain = 0
KWE1 091207Z 16010KT 05/M02 A3008 RMK A01 T00501023  RH  059%=      5-min Rain = 0
KWE1 091208Z 16010KT 05/M02 A3008 RMK A01 T00501023  RH  059%=      5-min Rain = 0
KWE1 091209Z 16009KT 05/M02 A3007 RMK A01 T00501023  RH  059%=      5-min Rain = 0
KWE1 091210Z 16009KT 05/M02 A3007 RMK A01 T00501022  RH  059%=      5-min Rain = 0
KWE1 091211Z 16009KT 05/M02 A3007 RMK A01 T00501023  RH  059%=      5-min Rain = 0
KWE1 091212Z 16010KT 05/M02 A3007 RMK A01 T00491023  RH  060%=      5-min Rain = 0
KWE1 091213Z 16008KT 05/M02 A3007 RMK A01 T00491023  RH  060%=      5-min Rain = 0
KWE1 091214Z 16009KT 05/M02 A3008 RMK A01 T00481024  RH  060%=      5-min Rain = 0
KWE1 091215Z 16009KT 05/M02 A3008 RMK A01 T00471024  RH  060%=      5-min Rain = 0
KWE1 091216Z 16008KT 05/M02 A3008 RMK A01 T00471024  RH  060%=      5-min Rain = 0
KWE1 091217Z 16009KT 05/M02 A3008 RMK A01 T00471024  RH  060%=      5-min Rain = 0
KWE1 091218Z 16008KT 05/M02 A3008 RMK A01 T00471024  RH  060%=      5-min Rain = 0
KWE1 091219Z 16008KT 05/M02 A3008 RMK A01 T00471024  RH  060%=      5-min Rain = 0
KWE1 091220Z 16008KT 05/M02 A3008 RMK A01 T00471024  RH  060%=      5-min Rain = 0
KWE1 091221Z 16007KT 05/M02 A3008 RMK A01 T00471024  RH  060%=      5-min Rain = 0
KWE1 091222Z 16008KT 05/M02 A3008 RMK A01 T00461024  RH  060%=      5-min Rain = 0
KWE1 091223Z 16008KT 05/M02 A3008 RMK A01 T00461024  RH  060%=      5-min Rain = 0
KWE1 091224Z 16008KT 05/M02 A3008 RMK A01 T00461024  RH  061%=      5-min Rain = 0
KWE1 091225Z 16009KT 05/M02 A3008 RMK A01 T00461024  RH  061%=      5-min Rain = 0
KWE1 091226Z 16009KT 05/M02 A3008 RMK A01 T00461023  RH  061%=      5-min Rain = 0
KWE1 091227Z 16009KT 05/M02 A3008 RMK A01 T00471023  RH  060%=      5-min Rain = 0
KWE1 091228Z 17009KT 05/M02 A3008 RMK A01 T00471023  RH  060%=      5-min Rain = 0
KWE1 091229Z 17009KT 05/M02 A3008 RMK A01 T00461024  RH  060%=      5-min Rain = 0
KWE1 091230Z 16010KT 05/M02 A3008 RMK A01 T00461023  RH  061%=      5-min Rain = 0
KWE1 091231Z 16010KT 05/M02 A3008 RMK A01 T00471022  RH  061%=      5-min Rain = 0
KWE1 091232Z 16010KT 05/M02 A3008 RMK A01 T00471022  RH  061%=      5-min Rain = 0
KWE1 091233Z 17009KT 05/M02 A3008 RMK A01 T00471022  RH  061%=      5-min Rain = 0
KWE1 091234Z 17009KT 05/M02 A3008 RMK A01 T00471023  RH  060%=      5-min Rain = 0
KWE1 091235Z 17008KT 05/M02 A3008 RMK A01 T00481022  RH  060%=      5-min Rain = 0
KWE1 091236Z 17009KT 05/M02 A3008 RMK A01 T00481022  RH  060%=      5-min Rain = 0
KWE1 091237Z 17010KT 05/M02 A3008 RMK A01 T00471023  RH  060%=      5-min Rain = 0
KWE1 091238Z 17009KT 05/M02 A3008 RMK A01 T00471023  RH  061%=      5-min Rain = 0
KWE1 091239Z 17008KT 05/M02 A3008 RMK A01 T00471023  RH  061%=      5-min Rain = 0
KWE1 091240Z 17010KT 05/M02 A3008 RMK A01 T00461023  RH  061%=      5-min Rain = 0
KWE1 091241Z 17008KT 05/M02 A3008 RMK A01 T00471022  RH  061%=      5-min Rain = 0
KWE1 091242Z 17008KT 05/M02 A3008 RMK A01 T00471022  RH  061%=      5-min Rain = 0
KWE1 091243Z 17009KT 05/M02 A3008 RMK A01 T00461023  RH  061%=      5-min Rain = 0
KWE1 091244Z 17009KT 05/M02 A3008 RMK A01 T00461022  RH  061%=      5-min Rain = 0
KWE1 091245Z 17009KT 05/M02 A3008 RMK A01 T00461022  RH  061%=      5-min Rain = 0
KWE1 091246Z 17009KT 05/M02 A3008 RMK A01 T00461022  RH  061%=      5-min Rain = 0
KWE1 091247Z 17009KT 05/M02 A3008 RMK A01 T00471021  RH  061%=      5-min Rain = 0
KWE1 091248Z 17009KT 05/M02 A3007 RMK A01 T00481021  RH  061%=      5-min Rain = 0
KWE1 091249Z 17010KT 05/M02 A3007 RMK A01 T00471021  RH  061%=      5-min Rain = 0
KWE1 091250Z 17009KT 05/M02 A3007 RMK A01 T00471021  RH  061%=      5-min Rain = 0
KWE1 091251Z 17009KT 05/M02 A3007 RMK A01 T00481021  RH  061%=      5-min Rain = 0
KWE1 091252Z 16010KT 05/M02 A3007 RMK A01 T00481021  RH  061%=      5-min Rain = 0
KWE1 091253Z 16009KT 05/M02 A3007 RMK A01 T00481021  RH  061%=      5-min Rain = 0
KWE1 091254Z 16009KT 05/M02 A3007 RMK A01 T00481021  RH  061%=      5-min Rain = 0
KWE1 091255Z 17009KT 05/M02 A3008 RMK A01 T00481022  RH  061%=      5-min Rain = 0
KWE1 091256Z 17009KT 05/M02 A3008 RMK A01 T00471022  RH  061%=      5-min Rain = 0
KWE1 091257Z 16008KT 05/M02 A3008 RMK A01 T00471022  RH  061%=      5-min Rain = 0
KWE1 091258Z 16008KT 05/M02 A3008 RMK A01 T00471022  RH  061%=      5-min Rain = 0
KWE1 091259Z 17009KT 05/M02 A3008 RMK A01 T00471023  RH  061%=      5-min Rain = 0
KWE1 091300Z 16009KT 05/M02 A3008 RMK A01 T00471022  RH  061%=      5-min Rain = 0
KWE1 091301Z 16009KT 05/M02 A3008 RMK A01 T00471022  RH  061%=      5-min Rain = 0
KWE1 091302Z 16010KT 05/M02 A3008 RMK A01 T00461022  RH  061%=      5-min Rain = 0
KWE1 091303Z 16009KT 05/M02 A3007 RMK A01 T00461022  RH  061%=      5-min Rain = 0
KWE1 091304Z 16009KT 05/M02 A3007 RMK A01 T00461022  RH  061%=      5-min Rain = 0
KWE1 091305Z 16010KT 05/M02 A3007 RMK A01 T00461022  RH  061%=      5-min Rain = 0
KWE1 091306Z 16010KT 05/M02 A3007 RMK A01 T00461022  RH  061%=      5-min Rain = 0
KWE1 091307Z 16009KT 05/M02 A3007 RMK A01 T00471022  RH  061%=      5-min Rain = 0
KWE1 091308Z 17009KT 05/M02 A3007 RMK A01 T00471023  RH  061%=      5-min Rain = 0
KWE1 091309Z 16009KT 05/M02 A3007 RMK A01 T00461023  RH  061%=      5-min Rain = 0
KWE1 091310Z 16009KT 05/M02 A3007 RMK A01 T00451023  RH  061%=      5-min Rain = 0
KWE1 091311Z 16009KT 05/M02 A3007 RMK A01 T00451023  RH  061%=      5-min Rain = 0
KWE1 091312Z 16010KT 04/M02 A3007 RMK A01 T00441023  RH  061%=      5-min Rain = 0
KWE1 091313Z 16010KT 04/M02 A3007 RMK A01 T00441023  RH  061%=      5-min Rain = 0
KWE1 091314Z 16010KT 04/M02 A3007 RMK A01 T00441023  RH  061%=      5-min Rain = 0
KWE1 091315Z 16010KT 05/M02 A3007 RMK A01 T00451023  RH  061%=      5-min Rain = 0
KWE1 091316Z 16010KT 05/M02 A3007 RMK A01 T00451023  RH  061%=      5-min Rain = 0
KWE1 091317Z 16010KT 05/M02 A3007 RMK A01 T00451023  RH  061%=      5-min Rain = 0
KWE1 091318Z 15011KT 05/M02 A3007 RMK A01 T00461023  RH  061%=      5-min Rain = 0
KWE1 091319Z 15010KT 05/M02 A3007 RMK A01 T00461023  RH  061%=      5-min Rain = 0
KWE1 091320Z 15011KT 05/M02 A3007 RMK A01 T00461023  RH  061%=      5-min Rain = 0
KWE1 091321Z 16011KT 05/M02 A3007 RMK A01 T00461023  RH  061%=      5-min Rain = 0
KWE1 091322Z 15010KT 05/M02 A3007 RMK A01 T00461023  RH  061%=      5-min Rain = 0
KWE1 091323Z 16011KT 05/M02 A3007 RMK A01 T00461023  RH  061%=      5-min Rain = 0
KWE1 091324Z 16011KT 05/M02 A3007 RMK A01 T00461023  RH  061%=      5-min Rain = 0
KWE1 091325Z 16011KT 05/M02 A3007 RMK A01 T00461023  RH  061%=      5-min Rain = 0
KWE1 091326Z 16010KT 05/M02 A3007 RMK A01 T00451024  RH  061%=      5-min Rain = 0
KWE1 091327Z 16009KT 05/M02 A3007 RMK A01 T00451024  RH  061%=      5-min Rain = 0
KWE1 091328Z 16010KT 04/M02 A3007 RMK A01 T00441024  RH  061%=      5-min Rain = 0
KWE1 091329Z 16010KT 04/M02 A3007 RMK A01 T00441023  RH  062%=      5-min Rain = 0
KWE1 091330Z 17010KT 05/M02 A3007 RMK A01 T00451023  RH  061%=      5-min Rain = 0
KWE1 091331Z 17010KT 05/M02 A3007 RMK A01 T00451024  RH  061%=      5-min Rain = 0
KWE1 091332Z 16010KT 04/M02 A3007 RMK A01 T00441024  RH  061%=      5-min Rain = 0
KWE1 091333Z 16010KT 04/M02 A3007 RMK A01 T00431024  RH  062%=      5-min Rain = 0
KWE1 091334Z 16010KT 04/M03 A3007 RMK A01 T00421025  RH  062%=      5-min Rain = 0
KWE1 091335Z 16010KT 04/M03 A3007 RMK A01 T00411025  RH  062%=      5-min Rain = 0
KWE1 091336Z 16011KT 04/M03 A3007 RMK A01 T00401025  RH  062%=      5-min Rain = 0
KWE1 091337Z 16011KT 04/M02 A3007 RMK A01 T00401024  RH  063%=      5-min Rain = 0
KWE1 091338Z 16011KT 04/M03 A3007 RMK A01 T00401025  RH  063%=      5-min Rain = 0
KWE1 091339Z 16011KT 04/M03 A3007 RMK A01 T00401025  RH  063%=      5-min Rain = 0
KWE1 091340Z 16011KT 04/M03 A3007 RMK A01 T00391026  RH  063%=      5-min Rain = 0
KWE1 091341Z 16010KT 04/M03 A3007 RMK A01 T00381026  RH  063%=      5-min Rain = 0
KWE1 091342Z 16011KT 04/M03 A3007 RMK A01 T00371026  RH  063%=      5-min Rain = 0
KWE1 091343Z 16011KT 04/M03 A3007 RMK A01 T00371026  RH  064%=      5-min Rain = 0
KWE1 091344Z 16011KT 04/M03 A3007 RMK A01 T00371025  RH  064%=      5-min Rain = 0
KWE1 091345Z 16010KT 04/M03 A3007 RMK A01 T00381025  RH  064%=      5-min Rain = 0
KWE1 091346Z 16011KT 04/M03 A3007 RMK A01 T00381025  RH  064%=      5-min Rain = 0
KWE1 091347Z 15011KT 04/M03 A3007 RMK A01 T00381025  RH  064%=      5-min Rain = 0
KWE1 091348Z 15010KT 04/M02 A3007 RMK A01 T00391024  RH  063%=      5-min Rain = 0
KWE1 091349Z 15009KT 04/M03 A3007 RMK A01 T00391025  RH  063%=      5-min Rain = 0
KWE1 091350Z 15009KT 04/M03 A3007 RMK A01 T00381026  RH  063%=      5-min Rain = 0
KWE1 091351Z 15010KT 04/M03 A3007 RMK A01 T00371026  RH  063%=      5-min Rain = 0
KWE1 091352Z 15010KT 04/M03 A3007 RMK A01 T00371025  RH  064%=      5-min Rain = 0
KWE1 091353Z 15011KT 04/M03 A3007 RMK A01 T00371025  RH  064%=      5-min Rain = 0
KWE1 091354Z 15009KT 04/M03 A3007 RMK A01 T00371025  RH  064%=      5-min Rain = 0
KWE1 091355Z 15010KT 04/M03 A3007 RMK A01 T00371025  RH  064%=      5-min Rain = 0
KWE1 091356Z 15010KT 04/M03 A3007 RMK A01 T00371025  RH  064%=      5-min Rain = 0
KWE1 091357Z 16010KT 04/M03 A3007 RMK A01 T00371025  RH  064%=      5-min Rain = 0
KWE1 091358Z 16010KT 04/M03 A3007 RMK A01 T00381025  RH  064%=      5-min Rain = 0
KWE1 091359Z 15010KT 04/M02 A3007 RMK A01 T00381024  RH  064%=      5-min Rain = 0
KWE1 091400Z 15010KT 04/M02 A3007 RMK A01 T00391024  RH  064%=      5-min Rain = 0
KWE1 091401Z 15010KT 04/M02 A3007 RMK A01 T00391024  RH  064%=      5-min Rain = 0
KWE1 091402Z 15010KT 04/M02 A3007 RMK A01 T00391024  RH  063%=      5-min Rain = 0
KWE1 091403Z 15009KT 04/M02 A3007 RMK A01 T00391024  RH  063%=      5-min Rain = 0
KWE1 091404Z 15009KT 04/M02 A3007 RMK A01 T00391024  RH  064%=      5-min Rain = 0
KWE1 091405Z 15009KT 04/M02 A3007 RMK A01 T00391024  RH  064%=      5-min Rain = 0
KWE1 091406Z 15009KT 04/M02 A3007 RMK A01 T00391024  RH  064%=      5-min Rain = 0
KWE1 091407Z 15009KT 04/M02 A3007 RMK A01 T00381024  RH  064%=      5-min Rain = 0
KWE1 091408Z 15010KT 04/M02 A3007 RMK A01 T00391024  RH  064%=      5-min Rain = 0
KWE1 091409Z 15009KT 04/M02 A3007 RMK A01 T00391024  RH  063%=      5-min Rain = 0
KWE1 091410Z 15009KT 04/M02 A3007 RMK A01 T00391024  RH  063%=      5-min Rain = 0
KWE1 091411Z 15009KT 04/M02 A3006 RMK A01 T00401024  RH  063%=      5-min Rain = 0
KWE1 091412Z 15009KT 04/M02 A3006 RMK A01 T00411023  RH  063%=      5-min Rain = 0
KWE1 091413Z 15009KT 04/M02 A3006 RMK A01 T00421022  RH  063%=      5-min Rain = 0
KWE1 091414Z 15009KT 04/M02 A3007 RMK A01 T00431022  RH  063%=      5-min Rain = 0
KWE1 091415Z 15008KT 04/M02 A3007 RMK A01 T00431022  RH  063%=      5-min Rain = 0
KWE1 091416Z 15009KT 04/M02 A3007 RMK A01 T00441022  RH  062%=      5-min Rain = 0
KWE1 091417Z 15008KT 05/M02 A3007 RMK A01 T00451022  RH  062%=      5-min Rain = 0
KWE1 091418Z 15009KT 05/M02 A3007 RMK A01 T00461021  RH  062%=      5-min Rain = 0
KWE1 091419Z 15009KT 05/M02 A3007 RMK A01 T00461021  RH  062%=      5-min Rain = 0
KWE1 091420Z 15009KT 05/M02 A3007 RMK A01 T00471021  RH  062%=      5-min Rain = 0
KWE1 091421Z 15009KT 05/M02 A3007 RMK A01 T00471021  RH  062%=      5-min Rain = 0
KWE1 091422Z 16010KT 05/M02 A3007 RMK A01 T00471021  RH  061%=      5-min Rain = 0
KWE1 091423Z 16010KT 05/M02 A3007 RMK A01 T00481021  RH  061%=      5-min Rain = 0
KWE1 091424Z 16010KT 05/M02 A3007 RMK A01 T00481020  RH  061%=      5-min Rain = 0
KWE1 091425Z 16010KT 05/M02 A3007 RMK A01 T00481020  RH  061%=      5-min Rain = 0
KWE1 091426Z 16009KT 05/M02 A3007 RMK A01 T00491020  RH  061%=      5-min Rain = 0
KWE1 091427Z 16010KT 05/M02 A3007 RMK A01 T00491020  RH  061%=      5-min Rain = 0
KWE1 091428Z 16009KT 05/M02 A3007 RMK A01 T00491020  RH  061%=      5-min Rain = 0
KWE1 091429Z 16009KT 05/M02 A3007 RMK A01 T00491020  RH  061%=      5-min Rain = 0
KWE1 091430Z 15009KT 05/M02 A3007 RMK A01 T00491020  RH  061%=      5-min Rain = 0
KWE1 091431Z 15009KT 05/M02 A3007 RMK A01 T00491019  RH  061%=      5-min Rain = 0
KWE1 091432Z 16009KT 05/M02 A3007 RMK A01 T00501019  RH  061%=      5-min Rain = 0
KWE1 091433Z 16009KT 05/M02 A3007 RMK A01 T00501019  RH  061%=      5-min Rain = 0
KWE1 091434Z 16008KT 05/M02 A3007 RMK A01 T00501019  RH  061%=      5-min Rain = 0
KWE1 091435Z 16008KT 05/M02 A3007 RMK A01 T00511019  RH  061%=      5-min Rain = 0
KWE1 091436Z 15008KT 05/M02 A3007 RMK A01 T00521018  RH  061%=      5-min Rain = 0
KWE1 091437Z 16008KT 05/M02 A3007 RMK A01 T00531018  RH  060%=      5-min Rain = 0
KWE1 091438Z 16008KT 05/M02 A3008 RMK A01 T00531018  RH  060%=      5-min Rain = 0
KWE1 091439Z 16008KT 05/M02 A3008 RMK A01 T00541017  RH  060%=      5-min Rain = 0
KWE1 091440Z 16007KT 06/M02 A3008 RMK A01 T00551017  RH  060%=      5-min Rain = 0
KWE1 091441Z 16007KT 06/M02 A3008 RMK A01 T00561017  RH  059%=      5-min Rain = 0
KWE1 091442Z 16008KT 06/M02 A3008 RMK A01 T00571016  RH  059%=      5-min Rain = 0
KWE1 091443Z 16006KT 06/M02 A3008 RMK A01 T00591016  RH  059%=      5-min Rain = 0
KWE1 091444Z 16007KT 06/M02 A3008 RMK A01 T00601015  RH  059%=      5-min Rain = 0
KWE1 091445Z 16007KT 06/M02 A3008 RMK A01 T00611015  RH  058%=      5-min Rain = 0
KWE1 091446Z 17006KT 06/M01 A3008 RMK A01 T00631014  RH  058%=      5-min Rain = 0
KWE1 091447Z 17006KT 06/M01 A3008 RMK A01 T00641014  RH  057%=      5-min Rain = 0
KWE1 091448Z 17007KT 07/M01 A3008 RMK A01 T00651013  RH  057%=      5-min Rain = 0
KWE1 091449Z 17007KT 07/M01 A3008 RMK A01 T00661014  RH  057%=      5-min Rain = 0
KWE1 091450Z 17006KT 07/M01 A3008 RMK A01 T00681013  RH  056%=      5-min Rain = 0
KWE1 091451Z 17005KT 07/M01 A3008 RMK A01 T00691011  RH  056%=      5-min Rain = 0
KWE1 091452Z 17005KT 07/M01 A3008 RMK A01 T00701011  RH  056%=      5-min Rain = 0
KWE1 091453Z 17006KT 07/M01 A3008 RMK A01 T00711010  RH  056%=      5-min Rain = 0
KWE1 091454Z 17006KT 07/M01 A3008 RMK A01 T00721010  RH  056%=      5-min Rain = 0
KWE1 091455Z 17006KT 07/M01 A3008 RMK A01 T00731010  RH  055%=      5-min Rain = 0
KWE1 091456Z 17007KT 07/M01 A3008 RMK A01 T00741010  RH  055%=      5-min Rain = 0
KWE1 091457Z 18009KT 08/M01 A3008 RMK A01 T00751010  RH  055%=      5-min Rain = 0
KWE1 091458Z 17008KT 08/M01 A3008 RMK A01 T00751011  RH  054%=      5-min Rain = 0
KWE1 091459Z 17008KT 08/M01 A3008 RMK A01 T00761011  RH  054%=      5-min Rain = 0
KWE1 091500Z 18009KT 08/M01 A3008 RMK A01 T00771010  RH  054%=      5-min Rain = 0
KWE1 091501Z 17009KT 08/M01 A3008 RMK A01 T00781010  RH  054%=      5-min Rain = 0
KWE1 091502Z 18009KT 08/M01 A3008 RMK A01 T00781010  RH  054%=      5-min Rain = 0
KWE1 091503Z 18009KT 08/M01 A3008 RMK A01 T00791010  RH  053%=      5-min Rain = 0
KWE1 091504Z 18008KT 08/M01 A3009 RMK A01 T00791010  RH  053%=      5-min Rain = 0
KWE1 091505Z 18009KT 08/M01 A3009 RMK A01 T00801008  RH  053%=      5-min Rain = 0
KWE1 091506Z 18009KT 08/M01 A3009 RMK A01 T00811009  RH  053%=      5-min Rain = 0
KWE1 091507Z 18009KT 08/M01 A3009 RMK A01 T00821010  RH  052%=      5-min Rain = 0
KWE1 091508Z 18008KT 08/M01 A3009 RMK A01 T00821010  RH  052%=      5-min Rain = 0
KWE1 091509Z 18008KT 08/M01 A3009 RMK A01 T00831009  RH  052%=      5-min Rain = 0
KWE1 091510Z 18009KT 08/M01 A3009 RMK A01 T00841009  RH  052%=      5-min Rain = 0
KWE1 091511Z 19009KT 08/M01 A3009 RMK A01 T00841008  RH  052%=      5-min Rain = 0
KWE1 091512Z 18007KT 08/M01 A3009 RMK A01 T00841008  RH  052%=      5-min Rain = 0
KWE1 091513Z 18009KT 09/M01 A3008 RMK A01 T00851007  RH  052%=      5-min Rain = 0
KWE1 091514Z 18008KT 09/M01 A3009 RMK A01 T00861007  RH  052%=      5-min Rain = 0
KWE1 091515Z 18010KT 09/M01 A3008 RMK A01 T00871007  RH  052%=      5-min Rain = 0
KWE1 091516Z 18010KT 09/M01 A3009 RMK A01 T00871007  RH  052%=      5-min Rain = 0
KWE1 091517Z 18010KT 09/M01 A3009 RMK A01 T00881007  RH  051%=      5-min Rain = 0
KWE1 091518Z 18011KT 09/M01 A3009 RMK A01 T00881007  RH  051%=      5-min Rain = 0
KWE1 091519Z 18011KT 09/M01 A3009 RMK A01 T00891007  RH  051%=      5-min Rain = 0
KWE1 091520Z 18012KT 09/M01 A3009 RMK A01 T00911007  RH  051%=      5-min Rain = 0
KWE1 091521Z 18011KT 09/M01 A3009 RMK A01 T00921006  RH  050%=      5-min Rain = 0
KWE1 091522Z 18011KT 09/M01 A3009 RMK A01 T00931007  RH  050%=      5-min Rain = 0
KWE1 091523Z 17012KT 09/M01 A3009 RMK A01 T00941006  RH  050%=      5-min Rain = 0
KWE1 091524Z 18011KT 10/M01 A3009 RMK A01 T00951006  RH  049%=      5-min Rain = 0
KWE1 091525Z 18010KT 10/M00 A3009 RMK A01 T00971003  RH  050%=      5-min Rain = 0
KWE1 091526Z 18013KT 10/M00 A3009 RMK A01 T00981004  RH  049%=      5-min Rain = 0
KWE1 091527Z 18015KT 10/M01 A3009 RMK A01 T00991005  RH  048%=      5-min Rain = 0
KWE1 091528Z 18012KT 10/M01 A3009 RMK A01 T00991006  RH  048%=      5-min Rain = 0
KWE1 091529Z 18012KT 10/M00 A3009 RMK A01 T01001004  RH  048%=      5-min Rain = 0
KWE1 091530Z 18010KT 10/M00 A3009 RMK A01 T01011004  RH  048%=      5-min Rain = 0
KWE1 091531Z 18011KT 10/M00 A3009 RMK A01 T01021003  RH  048%=      5-min Rain = 0
KWE1 091532Z 17010KT 10/M00 A3009 RMK A01 T01031003  RH  048%=      5-min Rain = 0
KWE1 091533Z 18012KT 10/M00 A3009 RMK A01 T01041003  RH  048%=      5-min Rain = 0
KWE1 091534Z 18011KT 10/M00 A3009 RMK A01 T01041003  RH  047%=      5-min Rain = 0
KWE1 091535Z 18011KT 11/M00 A3009 RMK A01 T01051002  RH  047%=      5-min Rain = 0
KWE1 091536Z 18011KT 11/M00 A3009 RMK A01 T01051003  RH  047%=      5-min Rain = 0
KWE1 091537Z 18012KT 11/M00 A3009 RMK A01 T01051003  RH  047%=      5-min Rain = 0
KWE1 091538Z 18011KT 11/M00 A3009 RMK A01 T01051004  RH  047%=      5-min Rain = 0
KWE1 091539Z 18012KT 11/M00 A3009 RMK A01 T01061003  RH  047%=      5-min Rain = 0
KWE1 091540Z 18012KT 11/M00 A3009 RMK A01 T01061003  RH  047%=      5-min Rain = 0
KWE1 091541Z 18012KT 11/M00 A3009 RMK A01 T01061003  RH  047%=      5-min Rain = 0
KWE1 091542Z 18012KT 11/M00 A3009 RMK A01 T01071002  RH  047%=      5-min Rain = 0
KWE1 091543Z 18013KT 11/M00 A3009 RMK A01 T01081002  RH  047%=      5-min Rain = 0
KWE1 091544Z 18012KT 11/M00 A3008 RMK A01 T01081003  RH  046%=      5-min Rain = 0
KWE1 091545Z 17014KT 11/M00 A3008 RMK A01 T01081003  RH  046%=      5-min Rain = 0
KWE1 091546Z 18013KT 11/M00 A3008 RMK A01 T01081004  RH  046%=      5-min Rain = 0
KWE1 091547Z 18014KT 11/M00 A3008 RMK A01 T01091003  RH  046%=      5-min Rain = 0
KWE1 091548Z 18013KT 11/M00 A3008 RMK A01 T01091002  RH  046%=      5-min Rain = 0
KWE1 091549Z 18014KT 11/M00 A3008 RMK A01 T01101003  RH  046%=      5-min Rain = 0
KWE1 091550Z 18013KT 11/M00 A3008 RMK A01 T01101003  RH  046%=      5-min Rain = 0
KWE1 091551Z 17013KT 11/M00 A3008 RMK A01 T01101002  RH  046%=      5-min Rain = 0
KWE1 091552Z 18013KT 11/M00 A3008 RMK A01 T01111003  RH  045%=      5-min Rain = 0
KWE1 091553Z 17012KT 11/M00 A3008 RMK A01 T01111003  RH  045%=      5-min Rain = 0
KWE1 091554Z 18012KT 11/M00 A3008 RMK A01 T01111003  RH  045%=      5-min Rain = 0
KWE1 091555Z 17011KT 11/M00 A3008 RMK A01 T01121001  RH  045%=      5-min Rain = 0
KWE1 091556Z 18012KT 11/M00 A3008 RMK A01 T01131001  RH  045%=      5-min Rain = 0
KWE1 091557Z 18013KT 11/00 A3008 RMK A01 T011400-0  RH  045%=      5-min Rain = 0
KWE1 091558Z 18013KT 12/M00 A3008 RMK A01 T01151001  RH  045%=      5-min Rain = 0
KWE1 091559Z 18012KT 12/M00 A3008 RMK A01 T01151002  RH  045%=      5-min Rain = 0
KWE1 091600Z 18012KT 12/00 A3008 RMK A01 T011500-0  RH  045%=      5-min Rain = 0
KWE1 091601Z 17013KT 12/00 A3008 RMK A01 T011600-0  RH  045%=      5-min Rain = 0
KWE1 091602Z 17014KT 12/00 A3008 RMK A01 T011600-0  RH  045%=      5-min Rain = 0
KWE1 091603Z 17013KT 12/00 A3008 RMK A01 T011700-0  RH  044%=      5-min Rain = 0
KWE1 091604Z 18015KT 12/00 A3008 RMK A01 T01180000  RH  044%=      5-min Rain = 0
KWE1 091605Z 18013KT 12/00 A3008 RMK A01 T01180001  RH  044%=      5-min Rain = 0
KWE1 091606Z 17013KT 12/00 A3008 RMK A01 T01180000  RH  044%=      5-min Rain = 0
KWE1 091607Z 17013KT 12/00 A3008 RMK A01 T01190001  RH  044%=      5-min Rain = 0
KWE1 091608Z 17012KT 12/00 A3008 RMK A01 T01190002  RH  044%=      5-min Rain = 0
KWE1 091609Z 18012KT 12/00 A3008 RMK A01 T01220004  RH  044%=      5-min Rain = 0
KWE1 091610Z 18011KT 12/00 A3008 RMK A01 T01220003  RH  044%=      5-min Rain = 0
KWE1 091611Z 17012KT 12/00 A3008 RMK A01 T01220000  RH  043%=      5-min Rain = 0
KWE1 091612Z 17012KT 12/00 A3008 RMK A01 T01190000  RH  044%=      5-min Rain = 0
KWE1 091613Z 18012KT 12/00 A3008 RMK A01 T01190001  RH  044%=      5-min Rain = 0
KWE1 091614Z 18010KT 12/00 A3008 RMK A01 T01190002  RH  044%=      5-min Rain = 0
KWE1 091615Z 18010KT 12/00 A3008 RMK A01 T01210003  RH  044%=      5-min Rain = 0
KWE1 091616Z 18011KT 12/00 A3008 RMK A01 T01230004  RH  044%=      5-min Rain = 0
KWE1 091617Z 18011KT 13/00 A3008 RMK A01 T01250004  RH  043%=      5-min Rain = 0
KWE1 091618Z 18012KT 13/00 A3008 RMK A01 T01260004  RH  043%=      5-min Rain = 0
KWE1 091619Z 18011KT 13/00 A3008 RMK A01 T01260004  RH  043%=      5-min Rain = 0
KWE1 091620Z 18011KT 13/01 A3008 RMK A01 T01280005  RH  043%=      5-min Rain = 0
KWE1 091621Z 18011KT 13/01 A3008 RMK A01 T01300005  RH  042%=      5-min Rain = 0
KWE1 091622Z 18012KT 13/01 A3008 RMK A01 T01310005  RH  042%=      5-min Rain = 0
KWE1 091623Z 18012KT 13/01 A3008 RMK A01 T01320005  RH  042%=      5-min Rain = 0
KWE1 091624Z 18012KT 13/01 A3008 RMK A01 T01330005  RH  042%=      5-min Rain = 0
KWE1 091625Z 18011KT 13/00 A3008 RMK A01 T01330004  RH  041%=      5-min Rain = 0
KWE1 091626Z 18012KT 13/00 A3008 RMK A01 T01330004  RH  041%=      5-min Rain = 0
KWE1 091627Z 18012KT 13/00 A3008 RMK A01 T01330003  RH  041%=      5-min Rain = 0
KWE1 091628Z 19013KT 13/00 A3008 RMK A01 T01330004  RH  041%=      5-min Rain = 0
KWE1 091629Z 18012KT 13/00 A3008 RMK A01 T01340004  RH  041%=      5-min Rain = 0
KWE1 091630Z 18011KT 14/01 A3008 RMK A01 T01350006  RH  041%=      5-min Rain = 0
KWE1 091631Z 18010KT 14/01 A3008 RMK A01 T01370007  RH  041%=      5-min Rain = 0
KWE1 091632Z 17012KT 14/01 A3008 RMK A01 T01390007  RH  041%=      5-min Rain = 0
KWE1 091633Z 18012KT 14/01 A3008 RMK A01 T01400005  RH  040%=      5-min Rain = 0
KWE1 091634Z 18012KT 14/01 A3008 RMK A01 T01390006  RH  040%=      5-min Rain = 0
KWE1 091635Z 18011KT 14/01 A3008 RMK A01 T01390005  RH  040%=      5-min Rain = 0
KWE1 091636Z 17013KT 14/00 A3008 RMK A01 T01390004  RH  040%=      5-min Rain = 0
KWE1 091637Z 18012KT 14/00 A3008 RMK A01 T01390004  RH  040%=      5-min Rain = 0
KWE1 091638Z 18013KT 14/00 A3008 RMK A01 T01390004  RH  040%=      5-min Rain = 0
KWE1 091639Z 17013KT 14/01 A3008 RMK A01 T01400005  RH  040%=      5-min Rain = 0
KWE1 091640Z 17013KT 14/01 A3008 RMK A01 T01400005  RH  039%=      5-min Rain = 0
KWE1 091641Z 18014KT 14/00 A3008 RMK A01 T01400004  RH  039%=      5-min Rain = 0
KWE1 091642Z 18011KT 14/01 A3008 RMK A01 T01400005  RH  040%=      5-min Rain = 0
KWE1 091643Z 18011KT 14/01 A3008 RMK A01 T01420006  RH  040%=      5-min Rain = 0
KWE1 091644Z 18013KT 14/01 A3008 RMK A01 T01430006  RH  039%=      5-min Rain = 0
KWE1 091645Z 18012KT 14/01 A3007 RMK A01 T01430005  RH  039%=      5-min Rain = 0
KWE1 091646Z 18014KT 14/01 A3007 RMK A01 T01440005  RH  039%=      5-min Rain = 0
KWE1 091647Z 18012KT 14/00 A3007 RMK A01 T01440004  RH  039%=      5-min Rain = 0
KWE1 091648Z 18012KT 15/01 A3007 RMK A01 T01450007  RH  039%=      5-min Rain = 0
KWE1 091649Z 18012KT 15/01 A3007 RMK A01 T01470007  RH  038%=      5-min Rain = 0
KWE1 091650Z 19015KT 15/01 A3007 RMK A01 T01490008  RH  038%=      5-min Rain = 0
KWE1 091651Z 18014KT 15/01 A3007 RMK A01 T01490005  RH  037%=      5-min Rain = 0
KWE1 091652Z 19013KT 15/00 A3007 RMK A01 T01480004  RH  037%=      5-min Rain = 0
KWE1 091653Z 19014KT 15/00 A3007 RMK A01 T01480004  RH  037%=      5-min Rain = 0
KWE1 091654Z 19013KT 15/00 A3007 RMK A01 T01480004  RH  037%=      5-min Rain = 0
KWE1 091655Z 18011KT 15/01 A3007 RMK A01 T01490005  RH  037%=      5-min Rain = 0
KWE1 091656Z 19012KT 15/00 A3007 RMK A01 T01500004  RH  037%=      5-min Rain = 0
KWE1 091657Z 18012KT 15/00 A3007 RMK A01 T01500004  RH  037%=      5-min Rain = 0
KWE1 091658Z 18011KT 15/00 A3007 RMK A01 T01490004  RH  037%=      5-min Rain = 0
KWE1 091659Z 19013KT 15/01 A3007 RMK A01 T01490005  RH  037%=      5-min Rain = 0
KWE1 091700Z 18012KT 15/01 A3007 RMK A01 T01510005  RH  037%=      5-min Rain = 0
KWE1 091701Z 19012KT 15/01 A3007 RMK A01 T01510005  RH  037%=      5-min Rain = 0
KWE1 091702Z 20011KT 15/01 A3007 RMK A01 T01520005  RH  037%=      5-min Rain = 0
KWE1 091703Z 20010KT 15/01 A3007 RMK A01 T01540007  RH  037%=      5-min Rain = 0
KWE1 091704Z 19012KT 16/01 A3007 RMK A01 T01560009  RH  037%=      5-min Rain = 0
KWE1 091705Z 19014KT 16/01 A3007 RMK A01 T01580010  RH  037%=      5-min Rain = 0
KWE1 091706Z 18015KT 16/01 A3007 RMK A01 T01580008  RH  036%=      5-min Rain = 0
KWE1 091707Z 19014KT 16/01 A3006 RMK A01 T01560006  RH  036%=      5-min Rain = 0
KWE1 091708Z 19014KT 16/01 A3006 RMK A01 T01560007  RH  036%=      5-min Rain = 0
KWE1 091709Z 19013KT 16/01 A3006 RMK A01 T01550006  RH  036%=      5-min Rain = 0
KWE1 091710Z 19013KT 16/01 A3006 RMK A01 T01560007  RH  036%=      5-min Rain = 0
KWE1 091711Z 19014KT 16/01 A3006 RMK A01 T01560006  RH  036%=      5-min Rain = 0
KWE1 091712Z 19013KT 16/01 A3006 RMK A01 T01550006  RH  036%=      5-min Rain = 0
KWE1 091713Z 19014KT 16/01 A3006 RMK A01 T01550007  RH  036%=      5-min Rain = 0
KWE1 091714Z 18013KT 16/01 A3006 RMK A01 T01560008  RH  036%=      5-min Rain = 0
KWE1 091715Z 19011KT 16/01 A3006 RMK A01 T01570007  RH  036%=      5-min Rain = 0
KWE1 091716Z 19010KT 16/01 A3006 RMK A01 T01580008  RH  036%=      5-min Rain = 0
KWE1 091717Z 19011KT 16/01 A3006 RMK A01 T01590009  RH  036%=      5-min Rain = 0
KWE1 091718Z 19011KT 16/01 A3006 RMK A01 T01620011  RH  036%=      5-min Rain = 0
KWE1 091719Z 18014KT 17/01 A3006 RMK A01 T01650011  RH  035%=      5-min Rain = 0
KWE1 091720Z 19013KT 17/01 A3006 RMK A01 T01660010  RH  035%=      5-min Rain = 0
KWE1 091721Z 19013KT 17/01 A3005 RMK A01 T01660009  RH  035%=      5-min Rain = 0
KWE1 091722Z 20014KT 17/01 A3005 RMK A01 T01650008  RH  034%=      5-min Rain = 0
KWE1 091723Z 19015KT 16/01 A3005 RMK A01 T01640007  RH  034%=      5-min Rain = 0
KWE1 091724Z 18014KT 16/01 A3005 RMK A01 T01640007  RH  035%=      5-min Rain = 0
KWE1 091725Z 18014KT 16/01 A3005 RMK A01 T01640008  RH  035%=      5-min Rain = 0
KWE1 091726Z 18014KT 16/01 A3005 RMK A01 T01640006  RH  034%=      5-min Rain = 0
KWE1 091727Z 18013KT 16/01 A3005 RMK A01 T01640007  RH  035%=      5-min Rain = 0
KWE1 091728Z 19014KT 17/01 A3005 RMK A01 T01650009  RH  035%=      5-min Rain = 0
KWE1 091729Z 19012KT 17/01 A3005 RMK A01 T01670009  RH  034%=      5-min Rain = 0
KWE1 091730Z 18013KT 17/01 A3005 RMK A01 T01680010  RH  034%=      5-min Rain = 0
KWE1 091731Z 20013KT 17/01 A3004 RMK A01 T01700010  RH  034%=      5-min Rain = 0
KWE1 091732Z 20012KT 17/01 A3004 RMK A01 T01700009  RH  034%=      5-min Rain = 0
KWE1 091733Z 20013KT 17/01 A3004 RMK A01 T01690008  RH  034%=      5-min Rain = 0
KWE1 091734Z 19011KT 17/01 A3004 RMK A01 T01680008  RH  034%=      5-min Rain = 0
KWE1 091735Z 19010KT 17/01 A3004 RMK A01 T01700011  RH  034%=      5-min Rain = 0
KWE1 091736Z 20012KT 17/01 A3004 RMK A01 T01740013  RH  034%=      5-min Rain = 0
KWE1 091737Z 19014KT 18/01 A3004 RMK A01 T01760010  RH  033%=      5-min Rain = 0
KWE1 091738Z 19016KT 18/01 A3004 RMK A01 T01750009  RH  033%=      5-min Rain = 0
KWE1 091739Z 18013KT 17/01 A3004 RMK A01 T01740009  RH  033%=      5-min Rain = 0
KWE1 091740Z 19012KT 18/01 A3003 RMK A01 T01750011  RH  033%=      5-min Rain = 0
KWE1 091741Z 19014KT 18/01 A3003 RMK A01 T01770011  RH  033%=      5-min Rain = 0
KWE1 091742Z 19014KT 18/01 A3003 RMK A01 T01770009  RH  032%=      5-min Rain = 0
KWE1 091743Z 18013KT 18/01 A3003 RMK A01 T01760010  RH  033%=      5-min Rain = 0
KWE1 091744Z 18014KT 18/01 A3003 RMK A01 T01760011  RH  033%=      5-min Rain = 0
KWE1 091745Z 19015KT 18/01 A3003 RMK A01 T01780012  RH  033%=      5-min Rain = 0
KWE1 091746Z 18015KT 18/01 A3003 RMK A01 T01790010  RH  032%=      5-min Rain = 0
KWE1 091747Z 18016KT 18/01 A3003 RMK A01 T01780010  RH  032%=      5-min Rain = 0
KWE1 091748Z 19016KT 18/01 A3003 RMK A01 T01780010  RH  032%=      5-min Rain = 0
KWE1 091749Z 19014KT 18/01 A3003 RMK A01 T01780010  RH  032%=      5-min Rain = 0
KWE1 091750Z 19014KT 18/01 A3002 RMK A01 T01790010  RH  032%=      5-min Rain = 0
KWE1 091751Z 20012KT 18/01 A3002 RMK A01 T01800009  RH  032%=      5-min Rain = 0
KWE1 091752Z 19012KT 18/01 A3002 RMK A01 T01790010  RH  032%=      5-min Rain = 0
KWE1 091753Z 18017KT 18/01 A3002 RMK A01 T01800011  RH  032%=      5-min Rain = 0
KWE1 091754Z 18015KT 18/01 A3002 RMK A01 T01820011  RH  032%=      5-min Rain = 0
KWE1 091755Z 19012KT 18/01 A3002 RMK A01 T01820011  RH  032%=      5-min Rain = 0
KWE1 091756Z 19015KT 18/01 A3002 RMK A01 T01830012  RH  032%=      5-min Rain = 0
KWE1 091757Z 19015KT 18/01 A3002 RMK A01 T01840010  RH  031%=      5-min Rain = 0
KWE1 091758Z 19013KT 18/01 A3002 RMK A01 T01830009  RH  031%=      5-min Rain = 0
KWE1 091759Z 19014KT 18/01 A3002 RMK A01 T01820009  RH  031%=      5-min Rain = 0
KWE1 091800Z 19014KT 18/01 A3002 RMK A01 T01830011  RH  031%=      5-min Rain = 0
KWE1 091801Z 20014KT 18/01 A3002 RMK A01 T01840010  RH  031%=      5-min Rain = 0
KWE1 091802Z 21014KT 18/01 A3002 RMK A01 T01830008  RH  031%=      5-min Rain = 0
KWE1 091803Z 19015KT 18/01 A3002 RMK A01 T01820009  RH  031%=      5-min Rain = 0
KWE1 091804Z 20013KT 18/01 A3001 RMK A01 T01820009  RH  031%=      5-min Rain = 0
KWE1 091805Z 20015KT 18/01 A3002 RMK A01 T01820010  RH  031%=      5-min Rain = 0
KWE1 091806Z 19011KT 18/01 A3002 RMK A01 T01830009  RH  031%=      5-min Rain = 0
KWE1 091807Z 19014KT 18/01 A3001 RMK A01 T01840012  RH  031%=      5-min Rain = 0
KWE1 091808Z 20013KT 19/01 A3001 RMK A01 T01850011  RH  031%=      5-min Rain = 0
KWE1 091809Z 20013KT 19/01 A3001 RMK A01 T01860012  RH  031%=      5-min Rain = 0
KWE1 091810Z 20013KT 19/01 A3001 RMK A01 T01880011  RH  031%=      5-min Rain = 0
KWE1 091811Z 21012KT 19/01 A3001 RMK A01 T01860010  RH  031%=      5-min Rain = 0
KWE1 091812Z 20016KT 19/01 A3001 RMK A01 T01860010  RH  031%=      5-min Rain = 0
KWE1 091813Z 20015KT 19/01 A3001 RMK A01 T01860010  RH  031%=      5-min Rain = 0
KWE1 091814Z 20014KT 19/01 A3001 RMK A01 T01870010  RH  030%=      5-min Rain = 0
KWE1 091815Z 19014KT 19/01 A3001 RMK A01 T01890011  RH  030%=      5-min Rain = 0
KWE1 091816Z 20013KT 19/01 A30 RMK A01 T01900011  RH  030%=      5-min Rain = 0
KWE1 091817Z 21012KT 19/01 A30 RMK A01 T01900012  RH  030%=      5-min Rain = 0
KWE1 091818Z 20012KT 19/01 A30 RMK A01 T01920012  RH  030%=      5-min Rain = 0
KWE1 091819Z 20015KT 19/01 A30 RMK A01 T01930011  RH  030%=      5-min Rain = 0
KWE1 091820Z 20015KT 19/01 A30 RMK A01 T01940010  RH  029%=      5-min Rain = 0
KWE1 091821Z 21017KT 19/01 A30 RMK A01 T01940010  RH  029%=      5-min Rain = 0
KWE1 091822Z 21017KT 19/01 A30 RMK A01 T01930009  RH  029%=      5-min Rain = 0
KWE1 091823Z 21016KT 19/01 A30 RMK A01 T01940009  RH  029%=      5-min Rain = 0
KWE1 091824Z 21018KT 19/01 A2999 RMK A01 T01940008  RH  029%=      5-min Rain = 0
KWE1 091825Z 21016KT 19/01 A2999 RMK A01 T01930008  RH  029%=      5-min Rain = 0
KWE1 091826Z 21017KT 19/01 A2999 RMK A01 T01920009  RH  029%=      5-min Rain = 0
KWE1 091827Z 21016KT 19/01 A2999 RMK A01 T01920008  RH  029%=      5-min Rain = 0
KWE1 091828Z 20014KT 19/01 A2999 RMK A01 T01910009  RH  029%=      5-min Rain = 0
KWE1 091829Z 21015KT 19/01 A2999 RMK A01 T01930010  RH  029%=      5-min Rain = 0
KWE1 091830Z 20017KT 19/01 A2999 RMK A01 T01930009  RH  029%=      5-min Rain = 0
KWE1 091831Z 19013KT 19/01 A2999 RMK A01 T01920010  RH  029%=      5-min Rain = 0
KWE1 091832Z 19015KT 19/01 A2999 RMK A01 T01940012  RH  029%=      5-min Rain = 0
KWE1 091833Z 19016KT 20/01 A2998 RMK A01 T01960012  RH  029%=      5-min Rain = 0
KWE1 091834Z 20016KT 20/01 A2998 RMK A01 T01970011  RH  029%=      5-min Rain = 0
KWE1 091835Z 20015KT 20/01 A2998 RMK A01 T01960008  RH  028%=      5-min Rain = 0
KWE1 091836Z 20014KT 20/01 A2998 RMK A01 T01950009  RH  029%=      5-min Rain = 0
KWE1 091837Z 20013KT 20/01 A2998 RMK A01 T01950009  RH  029%=      5-min Rain = 0
KWE1 091838Z 20013KT 20/01 A2998 RMK A01 T01960010  RH  029%=      5-min Rain = 0
KWE1 091839Z 20016KT 20/01 A2998 RMK A01 T01970010  RH  029%=      5-min Rain = 0
KWE1 091840Z 21014KT 20/01 A2998 RMK A01 T01970009  RH  028%=      5-min Rain = 0
KWE1 091841Z 21011KT 20/01 A2998 RMK A01 T01960009  RH  029%=      5-min Rain = 0
KWE1 091842Z 20011KT 20/01 A2998 RMK A01 T01980011  RH  029%=      5-min Rain = 0
KWE1 091843Z 17011KT 20/01 A2998 RMK A01 T02000012  RH  028%=      5-min Rain = 0
KWE1 091844Z 17010KT 20/01 A2997 RMK A01 T02010010  RH  028%=      5-min Rain = 0
KWE1 091845Z 18015KT 20/01 A2997 RMK A01 T02010011  RH  028%=      5-min Rain = 0
KWE1 091846Z 18012KT 20/01 A2997 RMK A01 T02020011  RH  028%=      5-min Rain = 0
KWE1 091847Z 18014KT 20/01 A2997 RMK A01 T02020011  RH  028%=      5-min Rain = 0
KWE1 091848Z 19015KT 20/01 A2997 RMK A01 T02030014  RH  028%=      5-min Rain = 0
KWE1 091849Z 19015KT 21/01 A2997 RMK A01 T02050014  RH  028%=      5-min Rain = 0
KWE1 091850Z 18015KT 21/01 A2997 RMK A01 T02050014  RH  028%=      5-min Rain = 0
KWE1 091851Z 18015KT 21/01 A2996 RMK A01 T02060014  RH  028%=      5-min Rain = 0
KWE1 091852Z 18015KT 21/01 A2996 RMK A01 T02060014  RH  028%=      5-min Rain = 0
KWE1 091853Z 19013KT 21/02 A2996 RMK A01 T02080015  RH  028%=      5-min Rain = 0
KWE1 091854Z 18010KT 21/01 A2996 RMK A01 T02090013  RH  027%=      5-min Rain = 0
KWE1 091855Z 19010KT 21/01 A2996 RMK A01 T02100014  RH  027%=      5-min Rain = 0
KWE1 091856Z 19011KT 21/02 A2996 RMK A01 T02100015  RH  027%=      5-min Rain = 0
KWE1 091857Z 20016KT 21/02 A2996 RMK A01 T02120015  RH  027%=      5-min Rain = 0
KWE1 091858Z 20015G20KT 21/01 A2995 RMK A01 T02110010  RH  026%=      5-min Rain = 0
KWE1 091859Z 20013KT 21/01 A2995 RMK A01 T02080010  RH  027%=      5-min Rain = 0
KWE1 091900Z 19015KT 21/01 A2995 RMK A01 T02080011  RH  027%=      5-min Rain = 0
KWE1 091901Z 19019KT 21/01 A2995 RMK A01 T02100013  RH  027%=      5-min Rain = 0
KWE1 091902Z 19016KT 21/01 A2995 RMK A01 T02120012  RH  027%=      5-min Rain = 0
KWE1 091903Z 19016KT 21/01 A2995 RMK A01 T02120012  RH  027%=      5-min Rain = 0
KWE1 091904Z 19013KT 21/01 A2995 RMK A01 T02120011  RH  026%=      5-min Rain = 0
KWE1 091905Z 19013KT 21/01 A2995 RMK A01 T02120011  RH  026%=      5-min Rain = 0
KWE1 091906Z 18015KT 21/01 A2995 RMK A01 T02120012  RH  027%=      5-min Rain = 0
KWE1 091907Z 20015KT 21/01 A2995 RMK A01 T02130012  RH  026%=      5-min Rain = 0
KWE1 091908Z 21015KT 21/01 A2994 RMK A01 T02140011  RH  026%=      5-min Rain = 0
KWE1 091909Z 19012KT 21/01 A2995 RMK A01 T02140012  RH  026%=      5-min Rain = 0
KWE1 091910Z 19014KT 22/01 A2994 RMK A01 T02150014  RH  026%=      5-min Rain = 0
KWE1 091911Z 19013KT 22/01 A2994 RMK A01 T02160013  RH  026%=      5-min Rain = 0
KWE1 091912Z 18014KT 22/01 A2994 RMK A01 T02160013  RH  026%=      5-min Rain = 0
KWE1 091913Z 18014KT 22/01 A2994 RMK A01 T02150014  RH  026%=      5-min Rain = 0
KWE1 091914Z 19012KT 22/01 A2994 RMK A01 T02170014  RH  026%=      5-min Rain = 0
KWE1 091915Z 18012KT 22/01 A2994 RMK A01 T02160014  RH  026%=      5-min Rain = 0
KWE1 091916Z 19014KT 22/02 A2994 RMK A01 T02180015  RH  026%=      5-min Rain = 0
KWE1 091917Z 17015KT 22/01 A2994 RMK A01 T02180014  RH  026%=      5-min Rain = 0
KWE1 091918Z 17014KT 22/01 A2994 RMK A01 T02190014  RH  026%=      5-min Rain = 0
KWE1 091919Z 17015KT 22/01 A2993 RMK A01 T02190014  RH  026%=      5-min Rain = 0
KWE1 091920Z 17015KT 22/01 A2993 RMK A01 T02190013  RH  025%=      5-min Rain = 0
KWE1 091921Z 18015KT 22/01 A2993 RMK A01 T02180012  RH  026%=      5-min Rain = 0
KWE1 091922Z 18014KT 22/01 A2993 RMK A01 T02170013  RH  026%=      5-min Rain = 0
KWE1 091923Z 18012KT 22/01 A2993 RMK A01 T02170013  RH  026%=      5-min Rain = 0
KWE1 091924Z 20014KT 22/01 A2993 RMK A01 T02180013  RH  026%=      5-min Rain = 0
KWE1 091925Z 19014KT 22/01 A2993 RMK A01 T02180011  RH  025%=      5-min Rain = 0
KWE1 091926Z 19014KT 22/01 A2992 RMK A01 T02180012  RH  026%=      5-min Rain = 0
KWE1 091927Z 18014KT 22/01 A2992 RMK A01 T02190014  RH  026%=      5-min Rain = 0
KWE1 091928Z 18016KT 22/01 A2992 RMK A01 T02200014  RH  026%=      5-min Rain = 0
KWE1 091929Z 17013KT 22/01 A2992 RMK A01 T02210013  RH  025%=      5-min Rain = 0
KWE1 091930Z 18017KT 22/01 A2992 RMK A01 T02210014  RH  025%=      5-min Rain = 0
KWE1 091931Z 18015KT 22/01 A2992 RMK A01 T02210013  RH  025%=      5-min Rain = 0
KWE1 091932Z 17014KT 22/01 A2992 RMK A01 T02210013  RH  025%=      5-min Rain = 0
KWE1 091933Z 18014KT 22/01 A2992 RMK A01 T02210013  RH  025%=      5-min Rain = 0
KWE1 091934Z 18016KT 22/01 A2992 RMK A01 T02220012  RH  025%=      5-min Rain = 0
KWE1 091935Z 19016KT 22/01 A2992 RMK A01 T02220013  RH  025%=      5-min Rain = 0
KWE1 091936Z 19015KT 22/01 A2992 RMK A01 T02240014  RH  025%=      5-min Rain = 0
KWE1 091937Z 19017KT 22/01 A2992 RMK A01 T02240013  RH  025%=      5-min Rain = 0
KWE1 091938Z 18019KT 22/01 A2991 RMK A01 T02240013  RH  025%=      5-min Rain = 0
KWE1 091939Z 18017KT 22/01 A2991 RMK A01 T02240012  RH  025%=      5-min Rain = 0
KWE1 091940Z 18013KT 22/01 A2991 RMK A01 T02230013  RH  025%=      5-min Rain = 0
KWE1 091941Z 19011KT 23/01 A2991 RMK A01 T02250014  RH  025%=      5-min Rain = 0
KWE1 091942Z 20013KT 23/02 A2991 RMK A01 T02280015  RH  025%=      5-min Rain = 0
KWE1 091943Z 21014KT 23/01 A2991 RMK A01 T02290012  RH  024%=      5-min Rain = 0
KWE1 091944Z 19014KT 23/01 A2991 RMK A01 T02270011  RH  024%=      5-min Rain = 0
KWE1 091945Z 18013KT 23/01 A2991 RMK A01 T02270014  RH  024%=      5-min Rain = 0
KWE1 091946Z 18014KT 23/02 A2991 RMK A01 T02290015  RH  024%=      5-min Rain = 0
KWE1 091947Z 19012KT 23/02 A2991 RMK A01 T02300015  RH  024%=      5-min Rain = 0
KWE1 091948Z 19014KT 23/01 A2991 RMK A01 T02300014  RH  024%=      5-min Rain = 0
KWE1 091949Z 19015KT 23/01 A2991 RMK A01 T02300013  RH  024%=      5-min Rain = 0
KWE1 091950Z 20013KT 23/01 A2991 RMK A01 T02300011  RH  024%=      5-min Rain = 0
KWE1 091951Z 20013KT 23/01 A2991 RMK A01 T02290011  RH  024%=      5-min Rain = 0
KWE1 091952Z 19013KT 23/01 A2991 RMK A01 T02280009  RH  024%=      5-min Rain = 0
KWE1 091953Z 19015KT 23/01 A2991 RMK A01 T02270012  RH  024%=      5-min Rain = 0
KWE1 091954Z 20014KT 23/01 A2991 RMK A01 T02310013  RH  024%=      5-min Rain = 0
KWE1 091955Z 20014KT 23/01 A2991 RMK A01 T02310011  RH  023%=      5-min Rain = 0
KWE1 091956Z 20013KT 23/01 A2991 RMK A01 T02270007  RH  023%=      5-min Rain = 0
KWE1 091957Z 20012KT 22/01 A2991 RMK A01 T02240009  RH  024%=      5-min Rain = 0
KWE1 091958Z 20014KT 23/01 A2991 RMK A01 T02270011  RH  024%=      5-min Rain = 0
KWE1 091959Z 20016KT 23/01 A2991 RMK A01 T02290010  RH  024%=      5-min Rain = 0
KWE1 092000Z 21012KT 23/01 A2991 RMK A01 T02290008  RH  023%=      5-min Rain = 0
KWE1 092001Z 20013KT 23/01 A2991 RMK A01 T02270007  RH  023%=      5-min Rain = 0
KWE1 092002Z 20012KT 23/01 A2991 RMK A01 T02280009  RH  024%=      5-min Rain = 0
KWE1 092003Z 19014KT 23/01 A2991 RMK A01 T02290011  RH  024%=      5-min Rain = 0
KWE1 092004Z 18015KT 23/01 A2991 RMK A01 T02290011  RH  024%=      5-min Rain = 0
KWE1 092005Z 20015KT 23/01 A2991 RMK A01 T02310012  RH  024%=      5-min Rain = 0
KWE1 092006Z 19015KT 23/01 A2991 RMK A01 T02310011  RH  023%=      5-min Rain = 0
KWE1 092007Z 19012KT 23/01 A2991 RMK A01 T02330014  RH  024%=      5-min Rain = 0
KWE1 092008Z 19015KT 24/02 A299 RMK A01 T02370015  RH  023%=      5-min Rain = 0
KWE1 092009Z 21015KT 24/01 A299 RMK A01 T02370014  RH  023%=      5-min Rain = 0
KWE1 092010Z 20015KT 24/01 A299 RMK A01 T02350012  RH  023%=      5-min Rain = 0
KWE1 092011Z 20013KT 23/01 A299 RMK A01 T02320011  RH  023%=      5-min Rain = 0
KWE1 092012Z 19014KT 23/01 A299 RMK A01 T02310012  RH  024%=      5-min Rain = 0
KWE1 092013Z 19014KT 23/01 A299 RMK A01 T02300012  RH  024%=      5-min Rain = 0
KWE1 092014Z 20013KT 23/01 A299 RMK A01 T02290012  RH  024%=      5-min Rain = 0
KWE1 092015Z 20011G16KT 23/01 A299 RMK A01 T02290012  RH  024%=      5-min Rain = 0
KWE1 092016Z 20016KT 23/01 A299 RMK A01 T02290012  RH  024%=      5-min Rain = 0
KWE1 092017Z 20011KT 23/01 A299 RMK A01 T02290012  RH  024%=      5-min Rain = 0
KWE1 092018Z 20010KT 23/01 A299 RMK A01 T02290012  RH  024%=      5-min Rain = 0
KWE1 092019Z 20011KT 23/01 A299 RMK A01 T02290012  RH  024%=      5-min Rain = 0
KWE1 092020Z 20012KT 23/01 A299 RMK A01 T02290013  RH  024%=      5-min Rain = 0
KWE1 092021Z 20014KT 23/01 A299 RMK A01 T02300012  RH  024%=      5-min Rain = 0
KWE1 092022Z 19014KT 23/01 A299 RMK A01 T02310013  RH  024%=      5-min Rain = 0
KWE1 092023Z 19016KT 23/02 A299 RMK A01 T02330015  RH  024%=      5-min Rain = 0
KWE1 092024Z 19015KT 23/01 A299 RMK A01 T02340014  RH  024%=      5-min Rain = 0
KWE1 092025Z 19014KT 23/01 A299 RMK A01 T02340014  RH  024%=      5-min Rain = 0
KWE1 092026Z 20013KT 23/01 A299 RMK A01 T02330014  RH  024%=      5-min Rain = 0
KWE1 092027Z 20013KT 23/01 A299 RMK A01 T02330012  RH  023%=      5-min Rain = 0
KWE1 092028Z 20011KT 23/01 A299 RMK A01 T02310012  RH  024%=      5-min Rain = 0
KWE1 092029Z 19012KT 23/01 A299 RMK A01 T02310013  RH  024%=      5-min Rain = 0
KWE1 092030Z 19011KT 23/01 A299 RMK A01 T02330013  RH  023%=      5-min Rain = 0
KWE1 092031Z 20012KT 23/01 A299 RMK A01 T02340014  RH  024%=      5-min Rain = 0
KWE1 092032Z 21013KT 24/01 A299 RMK A01 T02370014  RH  023%=      5-min Rain = 0
KWE1 092033Z 20012KT 24/01 A299 RMK A01 T02350012  RH  023%=      5-min Rain = 0
KWE1 092034Z 19014KT 24/01 A299 RMK A01 T02350014  RH  023%=      5-min Rain = 0
KWE1 092035Z 19013KT 24/01 A299 RMK A01 T02350014  RH  023%=      5-min Rain = 0
KWE1 092036Z 19012KT 24/01 A299 RMK A01 T02360014  RH  023%=      5-min Rain = 0
KWE1 092037Z 19013KT 24/01 A299 RMK A01 T02350014  RH  023%=      5-min Rain = 0
KWE1 092038Z 19015KT 24/01 A2989 RMK A01 T02350014  RH  023%=      5-min Rain = 0
KWE1 092039Z 21013KT 23/01 A2989 RMK A01 T02340012  RH  023%=      5-min Rain = 0
KWE1 092040Z 21014KT 24/01 A2989 RMK A01 T02350010  RH  023%=      5-min Rain = 0
KWE1 092041Z 21013KT 23/01 A2989 RMK A01 T02330010  RH  023%=      5-min Rain = 0
KWE1 092042Z 21014G19KT 23/01 A2989 RMK A01 T02330011  RH  023%=      5-min Rain = 0
KWE1 092043Z 20015G21KT 23/01 A2989 RMK A01 T02340011  RH  023%=      5-min Rain = 0
KWE1 092044Z 19012KT 23/01 A2989 RMK A01 T02340013  RH  023%=      5-min Rain = 0
KWE1 092045Z 20012KT 24/01 A2989 RMK A01 T02370014  RH  023%=      5-min Rain = 0
KWE1 092046Z 19017KT 24/01 A2989 RMK A01 T02380012  RH  023%=      5-min Rain = 0
KWE1 092047Z 20014KT 24/01 A2989 RMK A01 T02370011  RH  023%=      5-min Rain = 0
KWE1 092048Z 20013KT 24/01 A2989 RMK A01 T02360010  RH  023%=      5-min Rain = 0
KWE1 092049Z 20013KT 24/01 A2989 RMK A01 T02360011  RH  023%=      5-min Rain = 0
KWE1 092050Z 19013KT 24/01 A2989 RMK A01 T02350011  RH  023%=      5-min Rain = 0
KWE1 092051Z 18013KT 24/01 A2989 RMK A01 T02350011  RH  023%=      5-min Rain = 0
KWE1 092052Z 17013G20KT 24/01 A2989 RMK A01 T02370013  RH  023%=      5-min Rain = 0
KWE1 092053Z 18016G21KT 24/01 A2989 RMK A01 T02390014  RH  023%=      5-min Rain = 0
KWE1 092054Z 19012KT 24/01 A2989 RMK A01 T02410014  RH  023%=      5-min Rain = 0
KWE1 092055Z 18014KT 24/01 A2989 RMK A01 T02410012  RH  022%=      5-min Rain = 0
KWE1 092056Z 19015KT 24/01 A2989 RMK A01 T02400012  RH  022%=      5-min Rain = 0
KWE1 092057Z 19015KT 24/01 A2989 RMK A01 T02390011  RH  022%=      5-min Rain = 0
KWE1 092058Z 19015KT 24/01 A2989 RMK A01 T02380010  RH  022%=      5-min Rain = 0
KWE1 092059Z 19014KT 24/01 A2989 RMK A01 T02360009  RH  022%=      5-min Rain = 0
KWE1 092100Z 19012KT 24/01 A2989 RMK A01 T02350009  RH  023%=      5-min Rain = 0
KWE1 092101Z 18011KT 24/01 A2989 RMK A01 T02350011  RH  023%=      5-min Rain = 0
KWE1 092102Z 17014KT 24/01 A2988 RMK A01 T02380013  RH  023%=      5-min Rain = 0
KWE1 092103Z 19015KT 24/01 A2988 RMK A01 T02390013  RH  023%=      5-min Rain = 0
KWE1 092104Z 19015KT 24/01 A2988 RMK A01 T02400012  RH  022%=      5-min Rain = 0
KWE1 092105Z 20012KT 24/01 A2988 RMK A01 T02380011  RH  022%=      5-min Rain = 0
KWE1 092106Z 19012KT 24/01 A2988 RMK A01 T02370011  RH  023%=      5-min Rain = 0
KWE1 092107Z 18013KT 24/01 A2988 RMK A01 T02360011  RH  023%=      5-min Rain = 0
KWE1 092108Z 19013KT 24/01 A2988 RMK A01 T02370012  RH  023%=      5-min Rain = 0
KWE1 092109Z 18015KT 24/01 A2989 RMK A01 T02390013  RH  023%=      5-min Rain = 0
KWE1 092110Z 18017KT 24/01 A2989 RMK A01 T02390012  RH  022%=      5-min Rain = 0
KWE1 092111Z 18014KT 24/01 A2989 RMK A01 T02380011  RH  022%=      5-min Rain = 0
KWE1 092112Z 19011KT 24/01 A2989 RMK A01 T02370011  RH  023%=      5-min Rain = 0
KWE1 092113Z 18015KT 24/01 A2989 RMK A01 T02380012  RH  023%=      5-min Rain = 0
KWE1 092114Z 18016KT 24/01 A2989 RMK A01 T02390012  RH  023%=      5-min Rain = 0
KWE1 092115Z 18014KT 24/01 A2989 RMK A01 T02390012  RH  022%=      5-min Rain = 0
KWE1 092116Z 18015KT 24/01 A2989 RMK A01 T02380011  RH  022%=      5-min Rain = 0
KWE1 092117Z 18014KT 24/01 A2989 RMK A01 T02370011  RH  023%=      5-min Rain = 0
KWE1 092118Z 18011KT 24/01 A2988 RMK A01 T02370011  RH  023%=      5-min Rain = 0
KWE1 092119Z 17012KT 24/01 A2988 RMK A01 T02360011  RH  023%=      5-min Rain = 0
KWE1 092120Z 18011KT 24/01 A2989 RMK A01 T02370012  RH  023%=      5-min Rain = 0
KWE1 092121Z 19013KT 24/01 A2989 RMK A01 T02390013  RH  023%=      5-min Rain = 0
KWE1 092122Z 19015KT 24/01 A2989 RMK A01 T02390012  RH  023%=      5-min Rain = 0
KWE1 092123Z 19013KT 24/01 A2989 RMK A01 T02380011  RH  023%=      5-min Rain = 0
KWE1 092124Z 20012KT 24/01 A2989 RMK A01 T02370012  RH  023%=      5-min Rain = 0
KWE1 092125Z 20013KT 24/01 A2989 RMK A01 T02360011  RH  023%=      5-min Rain = 0
KWE1 092126Z 20015KT 24/01 A2988 RMK A01 T02360011  RH  023%=      5-min Rain = 0
KWE1 092127Z 19014KT 24/01 A2988 RMK A01 T02370013  RH  023%=      5-min Rain = 0
KWE1 092128Z 20013KT 24/01 A2988 RMK A01 T02370012  RH  023%=      5-min Rain = 0
KWE1 092129Z 20015KT 24/01 A2988 RMK A01 T02370012  RH  023%=      5-min Rain = 0
KWE1 092130Z 19016KT 24/01 A2988 RMK A01 T02370012  RH  023%=      5-min Rain = 0
KWE1 092131Z 20013KT 24/01 A2988 RMK A01 T02360011  RH  023%=      5-min Rain = 0
KWE1 092132Z 19014KT 24/01 A2988 RMK A01 T02360012  RH  023%=      5-min Rain = 0
KWE1 092133Z 18016KT 24/01 A2988 RMK A01 T02360012  RH  023%=      5-min Rain = 0
KWE1 092134Z 18015KT 24/01 A2988 RMK A01 T02360012  RH  023%=      5-min Rain = 0
KWE1 092135Z 18015KT 24/01 A2988 RMK A01 T02360012  RH  023%=      5-min Rain = 0
KWE1 092136Z 19012KT 24/01 A2988 RMK A01 T02360012  RH  023%=      5-min Rain = 0
KWE1 092137Z 19013KT 24/01 A2988 RMK A01 T02370014  RH  023%=      5-min Rain = 0
KWE1 092138Z 20015KT 24/01 A2988 RMK A01 T02390014  RH  023%=      5-min Rain = 0
KWE1 092139Z 19016KT 24/01 A2988 RMK A01 T02390013  RH  023%=      5-min Rain = 0
KWE1 092140Z 19015KT 24/01 A2988 RMK A01 T02380012  RH  023%=      5-min Rain = 0
KWE1 092141Z 20014KT 24/01 A2988 RMK A01 T02370012  RH  023%=      5-min Rain = 0
KWE1 092142Z 18011KT 24/01 A2988 RMK A01 T02370012  RH  023%=      5-min Rain = 0
KWE1 092143Z 17012KT 24/01 A2988 RMK A01 T02380014  RH  023%=      5-min Rain = 0
KWE1 092144Z 18011KT 24/01 A2988 RMK A01 T02390013  RH  023%=      5-min Rain = 0
KWE1 092145Z 18010G15KT 24/01 A2988 RMK A01 T02390014  RH  023%=      5-min Rain = 0
KWE1 092146Z 19015KT 24/02 A2988 RMK A01 T02400015  RH  023%=      5-min Rain = 0
KWE1 092147Z 19017KT 24/01 A2988 RMK A01 T02400013  RH  023%=      5-min Rain = 0
KWE1 092148Z 18016KT 24/01 A2988 RMK A01 T02390014  RH  023%=      5-min Rain = 0
KWE1 092149Z 18012KT 24/01 A2988 RMK A01 T02380013  RH  023%=      5-min Rain = 0
KWE1 092150Z 18013KT 24/02 A2988 RMK A01 T02380015  RH  023%=      5-min Rain = 0
KWE1 092151Z 18014KT 24/02 A2988 RMK A01 T02390015  RH  023%=      5-min Rain = 0
KWE1 092152Z 18016KT 24/02 A2988 RMK A01 T02400015  RH  023%=      5-min Rain = 0
KWE1 092153Z 17016KT 24/01 A2988 RMK A01 T02380013  RH  023%=      5-min Rain = 0
KWE1 092154Z 18016KT 24/01 A2988 RMK A01 T02370013  RH  023%=      5-min Rain = 0
KWE1 092155Z 18018KT 24/01 A2988 RMK A01 T02360013  RH  023%=      5-min Rain = 0
KWE1 092156Z 18014KT 24/01 A2988 RMK A01 T02350012  RH  023%=      5-min Rain = 0
KWE1 092157Z 18014KT 24/01 A2988 RMK A01 T02350013  RH  023%=      5-min Rain = 0
KWE1 092158Z 18013KT 24/01 A2988 RMK A01 T02350014  RH  023%=      5-min Rain = 0
KWE1 092159Z 19015KT 24/02 A2988 RMK A01 T02360015  RH  023%=      5-min Rain = 0
KWE1 092200Z 18014KT 24/01 A2988 RMK A01 T02370014  RH  023%=      5-min Rain = 0
KWE1 092201Z 18014KT 24/01 A2988 RMK A01 T02360013  RH  023%=      5-min Rain = 0
KWE1 092202Z 18015KT 24/01 A2988 RMK A01 T02350013  RH  023%=      5-min Rain = 0
KWE1 092203Z 18014KT 24/01 A2987 RMK A01 T02350013  RH  023%=      5-min Rain = 0
KWE1 092204Z 18014KT 24/01 A2988 RMK A01 T02360014  RH  023%=      5-min Rain = 0
KWE1 092205Z 19017KT 24/01 A2988 RMK A01 T02370014  RH  023%=      5-min Rain = 0
KWE1 092206Z 18014KT 24/01 A2988 RMK A01 T02360013  RH  023%=      5-min Rain = 0
KWE1 092207Z 19014KT 24/01 A2988 RMK A01 T02350014  RH  023%=      5-min Rain = 0
KWE1 092208Z 19014KT 24/01 A2988 RMK A01 T02360013  RH  023%=      5-min Rain = 0
KWE1 092209Z 18016KT 24/01 A2988 RMK A01 T02350013  RH  023%=      5-min Rain = 0
KWE1 092210Z 18015KT 24/01 A2987 RMK A01 T02360014  RH  023%=      5-min Rain = 0
KWE1 092211Z 17014KT 24/01 A2987 RMK A01 T02350013  RH  023%=      5-min Rain = 0
KWE1 092212Z 18013KT 23/01 A2987 RMK A01 T02330013  RH  023%=      5-min Rain = 0
KWE1 092213Z 19018KT 23/01 A2987 RMK A01 T02330014  RH  024%=      5-min Rain = 0
KWE1 092214Z 19016KT 23/01 A2987 RMK A01 T02330014  RH  024%=      5-min Rain = 0
KWE1 092215Z 19016KT 23/01 A2988 RMK A01 T02330014  RH  024%=      5-min Rain = 0
KWE1 092216Z 19017KT 23/01 A2987 RMK A01 T02330014  RH  024%=      5-min Rain = 0
KWE1 092217Z 19016KT 23/01 A2988 RMK A01 T02330013  RH  024%=      5-min Rain = 0
KWE1 092218Z 18017KT 23/01 A2988 RMK A01 T02320014  RH  024%=      5-min Rain = 0
KWE1 092219Z 18018KT 23/01 A2988 RMK A01 T02320014  RH  024%=      5-min Rain = 0
KWE1 092220Z 18016KT 23/01 A2988 RMK A01 T02310013  RH  024%=      5-min Rain = 0
KWE1 092221Z 18014KT 23/01 A2988 RMK A01 T02310014  RH  024%=      5-min Rain = 0
KWE1 092222Z 18014KT 23/01 A2988 RMK A01 T02310014  RH  024%=      5-min Rain = 0
KWE1 092223Z 18015KT 23/01 A2988 RMK A01 T02300014  RH  024%=      5-min Rain = 0
KWE1 092224Z 18015KT 23/01 A2988 RMK A01 T02300014  RH  024%=      5-min Rain = 0
KWE1 092225Z 18016KT 23/01 A2988 RMK A01 T02290014  RH  024%=      5-min Rain = 0
KWE1 092226Z 18015KT 23/01 A2988 RMK A01 T02290014  RH  024%=      5-min Rain = 0
KWE1 092227Z 18017KT 23/01 A2988 RMK A01 T02280014  RH  024%=      5-min Rain = 0
KWE1 092228Z 19016KT 23/01 A2988 RMK A01 T02280014  RH  024%=      5-min Rain = 0
KWE1 092229Z 18018KT 23/01 A2988 RMK A01 T02280014  RH  024%=      5-min Rain = 0
KWE1 092230Z 18017KT 23/01 A2987 RMK A01 T02270013  RH  024%=      5-min Rain = 0
KWE1 092231Z 18016KT 23/01 A2987 RMK A01 T02260013  RH  025%=      5-min Rain = 0
KWE1 092232Z 18018KT 23/01 A2987 RMK A01 T02260014  RH  025%=      5-min Rain = 0
KWE1 092233Z 18017KT 23/01 A2987 RMK A01 T02260014  RH  025%=      5-min Rain = 0
KWE1 092234Z 18016G22KT 23/01 A2987 RMK A01 T02260014  RH  025%=      5-min Rain = 0
KWE1 092235Z 18015KT 23/02 A2987 RMK A01 T02260015  RH  025%=      5-min Rain = 0
KWE1 092236Z 18014KT 23/02 A2987 RMK A01 T02260015  RH  025%=      5-min Rain = 0
KWE1 092237Z 18012KT 23/02 A2987 RMK A01 T02260015  RH  025%=      5-min Rain = 0
KWE1 092238Z 18012KT 23/02 A2987 RMK A01 T02260015  RH  025%=      5-min Rain = 0
KWE1 092239Z 18013KT 23/02 A2987 RMK A01 T02260015  RH  025%=      5-min Rain = 0
KWE1 092240Z 19013KT 23/02 A2988 RMK A01 T02260015  RH  025%=      5-min Rain = 0
KWE1 092241Z 18015KT 23/02 A2988 RMK A01 T02260015  RH  025%=      5-min Rain = 0
KWE1 092242Z 18014KT 23/02 A2988 RMK A01 T02250015  RH  025%=      5-min Rain = 0
KWE1 092243Z 18014KT 22/01 A2988 RMK A01 T02240014  RH  025%=      5-min Rain = 0
KWE1 092244Z 18015KT 22/01 A2987 RMK A01 T02230014  RH  025%=      5-min Rain = 0
KWE1 092245Z 18014KT 22/01 A2987 RMK A01 T02230014  RH  025%=      5-min Rain = 0
KWE1 092246Z 19015KT 22/01 A2987 RMK A01 T02230014  RH  025%=      5-min Rain = 0
KWE1 092247Z 18015KT 22/02 A2987 RMK A01 T02230015  RH  025%=      5-min Rain = 0
KWE1 092248Z 18013KT 22/02 A2987 RMK A01 T02230015  RH  025%=      5-min Rain = 0
KWE1 092249Z 18016KT 22/02 A2987 RMK A01 T02220015  RH  025%=      5-min Rain = 0
KWE1 092250Z 19017KT 22/02 A2987 RMK A01 T02220015  RH  025%=      5-min Rain = 0
KWE1 092251Z 18014KT 22/02 A2987 RMK A01 T02230016  RH  025%=      5-min Rain = 0
KWE1 092252Z 19016KT 22/02 A2987 RMK A01 T02230016  RH  026%=      5-min Rain = 0
KWE1 092253Z 18016KT 22/02 A2987 RMK A01 T02230016  RH  026%=      5-min Rain = 0
KWE1 092254Z 19017KT 22/02 A2987 RMK A01 T02220015  RH  025%=      5-min Rain = 0
KWE1 092255Z 18014G21KT 22/02 A2987 RMK A01 T02220015  RH  026%=      5-min Rain = 0
KWE1 092256Z 18017KT 22/02 A2987 RMK A01 T02220016  RH  026%=      5-min Rain = 0
KWE1 092257Z 17015KT 22/02 A2987 RMK A01 T02210015  RH  026%=      5-min Rain = 0
KWE1 092258Z 18013KT 22/02 A2987 RMK A01 T02200016  RH  026%=      5-min Rain = 0
KWE1 092259Z 18013KT 22/02 A2987 RMK A01 T02190016  RH  026%=      5-min Rain = 0
KWE1 092300Z 18015KT 22/02 A2987 RMK A01 T02190015  RH  026%=      5-min Rain = 0
KWE1 092301Z 18014KT 22/02 A2987 RMK A01 T02190016  RH  026%=      5-min Rain = 0
KWE1 092302Z 18011KT 22/02 A2987 RMK A01 T02180015  RH  026%=      5-min Rain = 0
KWE1 092303Z 18014KT 22/02 A2987 RMK A01 T02190016  RH  026%=      5-min Rain = 0
KWE1 092304Z 17016KT 22/02 A2987 RMK A01 T02190016  RH  026%=      5-min Rain = 0
KWE1 092305Z 17013KT 22/02 A2987 RMK A01 T02180016  RH  026%=      5-min Rain = 0
KWE1 092306Z 18014KT 22/02 A2987 RMK A01 T02170016  RH  026%=      5-min Rain = 0
KWE1 092307Z 18014KT 22/02 A2987 RMK A01 T02170016  RH  027%=      5-min Rain = 0
KWE1 092308Z 17014KT 22/02 A2987 RMK A01 T02170017  RH  027%=      5-min Rain = 0
KWE1 092309Z 18014KT 22/02 A2987 RMK A01 T02160017  RH  027%=      5-min Rain = 0
KWE1 092310Z 17014KT 22/02 A2987 RMK A01 T02160017  RH  027%=      5-min Rain = 0
KWE1 092311Z 18014KT 22/02 A2987 RMK A01 T02160017  RH  027%=      5-min Rain = 0
KWE1 092312Z 18014KT 22/02 A2987 RMK A01 T02150017  RH  027%=      5-min Rain = 0
KWE1 092313Z 18014KT 21/02 A2987 RMK A01 T02140017  RH  027%=      5-min Rain = 0
KWE1 092314Z 17013KT 21/02 A2987 RMK A01 T02140017  RH  027%=      5-min Rain = 0
KWE1 092315Z 17013KT 21/02 A2987 RMK A01 T02140017  RH  027%=      5-min Rain = 0
KWE1 092316Z 17015KT 21/02 A2987 RMK A01 T02130017  RH  027%=      5-min Rain = 0
KWE1 092317Z 17016KT 21/02 A2987 RMK A01 T02120017  RH  027%=      5-min Rain = 0
KWE1 092318Z 17016KT 21/02 A2987 RMK A01 T02120018  RH  028%=      5-min Rain = 0
KWE1 092319Z 17016KT 21/02 A2987 RMK A01 T02120017  RH  028%=      5-min Rain = 0
KWE1 092320Z 18014KT 21/02 A2987 RMK A01 T02110018  RH  028%=      5-min Rain = 0
KWE1 092321Z 17014KT 21/02 A2987 RMK A01 T02110018  RH  028%=      5-min Rain = 0
KWE1 092322Z 18015KT 21/02 A2987 RMK A01 T02100018  RH  028%=      5-min Rain = 0
KWE1 092323Z 18015KT 21/02 A2987 RMK A01 T02100018  RH  028%=      5-min Rain = 0
KWE1 092324Z 17014KT 21/02 A2987 RMK A01 T02090018  RH  028%=      5-min Rain = 0
KWE1 092325Z 18014KT 21/02 A2987 RMK A01 T02080017  RH  028%=      5-min Rain = 0
KWE1 092326Z 17012KT 21/02 A2987 RMK A01 T02080017  RH  028%=      5-min Rain = 0
KWE1 092327Z 17014KT 21/02 A2987 RMK A01 T02070018  RH  028%=      5-min Rain = 0
KWE1 092328Z 17013KT 21/02 A2987 RMK A01 T02070018  RH  029%=      5-min Rain = 0
KWE1 092329Z 18015KT 21/02 A2987 RMK A01 T02060018  RH  029%=      5-min Rain = 0
KWE1 092330Z 17013G18KT 21/02 A2987 RMK A01 T02060018  RH  029%=      5-min Rain = 0
KWE1 092331Z 17012KT 21/02 A2987 RMK A01 T02050017  RH  029%=      5-min Rain = 0
KWE1 092332Z 17012KT 21/02 A2987 RMK A01 T02050017  RH  029%=      5-min Rain = 0
KWE1 092333Z 17011KT 20/02 A2987 RMK A01 T02040017  RH  029%=      5-min Rain = 0
KWE1 092334Z 17012KT 20/02 A2987 RMK A01 T02020017  RH  029%=      5-min Rain = 0
KWE1 092335Z 17011KT 20/02 A2987 RMK A01 T02010017  RH  029%=      5-min Rain = 0
KWE1 092336Z 17011KT 20/02 A2987 RMK A01 T02000017  RH  029%=      5-min Rain = 0
KWE1 092337Z 17012KT 20/02 A2987 RMK A01 T01990017  RH  030%=      5-min Rain = 0
KWE1 092338Z 17011KT 20/02 A2987 RMK A01 T01980017  RH  030%=      5-min Rain = 0
KWE1 092339Z 17013KT 20/02 A2987 RMK A01 T01980017  RH  030%=      5-min Rain = 0
KWE1 092340Z 17012KT 20/02 A2987 RMK A01 T01980017  RH  030%=      5-min Rain = 0
KWE1 092341Z 17012KT 20/02 A2987 RMK A01 T01980017  RH  030%=      5-min Rain = 0
KWE1 092342Z 17013KT 20/02 A2987 RMK A01 T01980017  RH  030%=      5-min Rain = 0
KWE1 092343Z 17012KT 20/02 A2987 RMK A01 T01970017  RH  030%=      5-min Rain = 0
KWE1 092344Z 17012KT 20/02 A2987 RMK A01 T01960017  RH  030%=      5-min Rain = 0
KWE1 092345Z 17012KT 20/02 A2987 RMK A01 T01950017  RH  031%=      5-min Rain = 0
KWE1 092346Z 17012KT 19/02 A2987 RMK A01 T01940017  RH  031%=      5-min Rain = 0
KWE1 092347Z 17012KT 19/02 A2987 RMK A01 T01930017  RH  031%=      5-min Rain = 0
KWE1 092348Z 17012KT 19/02 A2987 RMK A01 T01920017  RH  031%=      5-min Rain = 0
KWE1 092349Z 17012KT 19/02 A2987 RMK A01 T01920017  RH  031%=      5-min Rain = 0
KWE1 092350Z 17011KT 19/02 A2987 RMK A01 T01910017  RH  031%=      5-min Rain = 0
KWE1 092351Z 17012KT 19/02 A2987 RMK A01 T01900017  RH  031%=      5-min Rain = 0
KWE1 092352Z 17011KT 19/02 A2987 RMK A01 T01900017  RH  031%=      5-min Rain = 0
KWE1 092353Z 17012KT 19/02 A2987 RMK A01 T01890017  RH  032%=      5-min Rain = 0
KWE1 092354Z 17012KT 19/02 A2987 RMK A01 T01890017  RH  032%=      5-min Rain = 0
KWE1 092355Z 16012KT 19/02 A2987 RMK A01 T01880017  RH  032%=      5-min Rain = 0
KWE1 092356Z 17010KT 19/02 A2987 RMK A01 T01880017  RH  032%=      5-min Rain = 0
KWE1 092357Z 17011KT 19/02 A2987 RMK A01 T01870017  RH  032%=      5-min Rain = 0
KWE1 092358Z 16012KT 19/02 A2987 RMK A01 T01870017  RH  032%=      5-min Rain = 0
KWE1 092359Z 17012KT 19/02 A2987 RMK A01 T01870018  RH  032%=      5-min Rain = 0
KWE1 100000Z 17011KT 19/02 A2987 RMK A01 T01870018  RH  032%=      5-min Rain = 0
KWE1 100001Z 17010KT 19/02 A2987 RMK A01 T01860017  RH  032%=      5-min Rain = 0
KWE1 100002Z 17013KT 19/02 A2987 RMK A01 T01850017  RH  032%=      5-min Rain = 0
KWE1 100003Z 17013KT 19/02 A2987 RMK A01 T01850017  RH  033%=      5-min Rain = 0
KWE1 100004Z 17012KT 19/02 A2987 RMK A01 T01860018  RH  032%=      5-min Rain = 0
KWE1 100005Z 17012KT 19/02 A2987 RMK A01 T01860017  RH  032%=      5-min Rain = 0
KWE1 100006Z 17013KT 19/02 A2987 RMK A01 T01850017  RH  033%=      5-min Rain = 0
KWE1 100007Z 17012KT 19/02 A2987 RMK A01 T01850018  RH  033%=      5-min Rain = 0
KWE1 100008Z 17014KT 18/02 A2987 RMK A01 T01840017  RH  033%=      5-min Rain = 0
KWE1 100009Z 17014KT 18/02 A2987 RMK A01 T01840016  RH  033%=      5-min Rain = 0
KWE1 100010Z 17013KT 18/02 A2987 RMK A01 T01840016  RH  033%=      5-min Rain = 0
KWE1 100011Z 17013KT 18/02 A2987 RMK A01 T01830016  RH  033%=      5-min Rain = 0
KWE1 100012Z 17013KT 18/02 A2987 RMK A01 T01830016  RH  033%=      5-min Rain = 0
KWE1 100013Z 17012KT 18/02 A2987 RMK A01 T01820016  RH  033%=      5-min Rain = 0
KWE1 100014Z 17012KT 18/02 A2987 RMK A01 T01820016  RH  033%=      5-min Rain = 0
KWE1 100015Z 17013KT 18/02 A2987 RMK A01 T01810016  RH  033%=      5-min Rain = 0
KWE1 100016Z 17012KT 18/02 A2987 RMK A01 T01810016  RH  033%=      5-min Rain = 0
KWE1 100017Z 17012KT 18/02 A2987 RMK A01 T01800016  RH  033%=      5-min Rain = 0
KWE1 100018Z 17012KT 18/02 A2987 RMK A01 T01790015  RH  033%=      5-min Rain = 0
KWE1 100019Z 17012KT 18/02 A2987 RMK A01 T01790016  RH  033%=      5-min Rain = 0
KWE1 100020Z 17013KT 18/02 A2987 RMK A01 T01790016  RH  033%=      5-min Rain = 0
KWE1 100021Z 17012KT 18/02 A2987 RMK A01 T01790016  RH  034%=      5-min Rain = 0
KWE1 100022Z 17013G18KT 18/02 A2987 RMK A01 T01790016  RH  033%=      5-min Rain = 0
KWE1 100023Z 17013KT 18/02 A2987 RMK A01 T01780016  RH  034%=      5-min Rain = 0
KWE1 100024Z 17012KT 18/02 A2987 RMK A01 T01780016  RH  034%=      5-min Rain = 0
KWE1 100025Z 17013KT 18/02 A2987 RMK A01 T01780016  RH  034%=      5-min Rain = 0
KWE1 100026Z 17012KT 18/02 A2987 RMK A01 T01770016  RH  034%=      5-min Rain = 0
KWE1 100027Z 17012KT 18/02 A2987 RMK A01 T01770016  RH  034%=      5-min Rain = 0
KWE1 100028Z 17012KT 18/02 A2987 RMK A01 T01760016  RH  034%=      5-min Rain = 0
KWE1 100029Z 17012KT 18/02 A2987 RMK A01 T01760016  RH  034%=      5-min Rain = 0
KWE1 100030Z 17012KT 18/02 A2987 RMK A01 T01750015  RH  034%=      5-min Rain = 0
KWE1 100031Z 17012KT 18/02 A2987 RMK A01 T01750016  RH  034%=      5-min Rain = 0
KWE1 100032Z 17012KT 17/02 A2987 RMK A01 T01740015  RH  034%=      5-min Rain = 0
KWE1 100033Z 17012KT 17/02 A2987 RMK A01 T01730015  RH  035%=      5-min Rain = 0
KWE1 100034Z 17012KT 17/02 A2987 RMK A01 T01730016  RH  035%=      5-min Rain = 0
KWE1 100035Z 17012KT 17/02 A2987 RMK A01 T01730015  RH  035%=      5-min Rain = 0
KWE1 100036Z 17012KT 17/02 A2987 RMK A01 T01730015  RH  035%=      5-min Rain = 0
KWE1 100037Z 17012KT 17/02 A2987 RMK A01 T01730015  RH  035%=      5-min Rain = 0
KWE1 100038Z 17012KT 17/02 A2987 RMK A01 T01720016  RH  035%=      5-min Rain = 0
KWE1 100039Z 17012KT 17/02 A2987 RMK A01 T01720015  RH  035%=      5-min Rain = 0
KWE1 100040Z 17012KT 17/02 A2987 RMK A01 T01720015  RH  035%=      5-min Rain = 0
KWE1 100041Z 17012KT 17/02 A2987 RMK A01 T01710015  RH  035%=      5-min Rain = 0
KWE1 100042Z 17012KT 17/02 A2987 RMK A01 T01720015  RH  035%=      5-min Rain = 0
KWE1 100043Z 17012KT 17/02 A2987 RMK A01 T01710015  RH  035%=      5-min Rain = 0
KWE1 100044Z 17013KT 17/02 A2987 RMK A01 T01710016  RH  035%=      5-min Rain = 0
KWE1 100045Z 17012KT 17/02 A2987 RMK A01 T01720016  RH  035%=      5-min Rain = 0
KWE1 100046Z 17012KT 17/02 A2987 RMK A01 T01720015  RH  035%=      5-min Rain = 0
KWE1 100047Z 17012KT 17/02 A2987 RMK A01 T01720015  RH  035%=      5-min Rain = 0
KWE1 100048Z 17014KT 17/02 A2987 RMK A01 T01720015  RH  035%=      5-min Rain = 0
KWE1 100049Z 17013KT 17/02 A2987 RMK A01 T01720016  RH  035%=      5-min Rain = 0
KWE1 100050Z 17012KT 17/02 A2987 RMK A01 T01720015  RH  035%=      5-min Rain = 0
KWE1 100051Z 17011KT 17/02 A2987 RMK A01 T01720015  RH  035%=      5-min Rain = 0
KWE1 100052Z 17011KT 17/02 A2987 RMK A01 T01710015  RH  035%=      5-min Rain = 0
KWE1 100053Z 17011KT 17/01 A2987 RMK A01 T01700014  RH  035%=      5-min Rain = 0
KWE1 100054Z 17012KT 17/01 A2987 RMK A01 T01690014  RH  035%=      5-min Rain = 0
KWE1 100055Z 17012KT 17/02 A2987 RMK A01 T01690015  RH  035%=      5-min Rain = 0
KWE1 100056Z 17011KT 17/02 A2987 RMK A01 T01690015  RH  035%=      5-min Rain = 0
KWE1 100057Z 17012KT 17/02 A2987 RMK A01 T01680016  RH  036%=      5-min Rain = 0
KWE1 100058Z 17012KT 17/02 A2987 RMK A01 T01670016  RH  036%=      5-min Rain = 0
KWE1 100059Z 17011KT 17/02 A2987 RMK A01 T01670016  RH  036%=      5-min Rain = 0
KWE1 100100Z 17010KT 17/02 A2987 RMK A01 T01660016  RH  036%=      5-min Rain = 0
KWE1 100101Z 17011KT 17/02 A2987 RMK A01 T01660016  RH  036%=      5-min Rain = 0
KWE1 100102Z 17011KT 17/02 A2987 RMK A01 T01660016  RH  036%=      5-min Rain = 0
KWE1 100103Z 17010KT 17/02 A2987 RMK A01 T01650016  RH  036%=      5-min Rain = 0
KWE1 100104Z 17011KT 17/02 A2987 RMK A01 T01650016  RH  036%=      5-min Rain = 0
KWE1 100105Z 17010KT 17/02 A2987 RMK A01 T01650016  RH  036%=      5-min Rain = 0
KWE1 100106Z 17011KT 17/02 A2987 RMK A01 T01650016  RH  036%=      5-min Rain = 0
KWE1 100107Z 17012KT 17/02 A2987 RMK A01 T01650016  RH  036%=      5-min Rain = 0
KWE1 100108Z 17011KT 17/02 A2987 RMK A01 T01660016  RH  036%=      5-min Rain = 0
KWE1 100109Z 16011KT 17/02 A2987 RMK A01 T01660016  RH  036%=      5-min Rain = 0
KWE1 100110Z 16011KT 17/02 A2987 RMK A01 T01650015  RH  036%=      5-min Rain = 0
KWE1 100111Z 16012KT 16/02 A2987 RMK A01 T01640015  RH  037%=      5-min Rain = 0
KWE1 100112Z 16012KT 16/02 A2987 RMK A01 T01640016  RH  037%=      5-min Rain = 0
KWE1 100113Z 16011KT 17/02 A2987 RMK A01 T01650016  RH  037%=      5-min Rain = 0
KWE1 100114Z 16011KT 16/02 A2987 RMK A01 T01640015  RH  037%=      5-min Rain = 0
KWE1 100115Z 16012KT 16/02 A2987 RMK A01 T01630015  RH  037%=      5-min Rain = 0
KWE1 100116Z 16011KT 16/02 A2987 RMK A01 T01620015  RH  037%=      5-min Rain = 0
KWE1 100117Z 16011KT 16/02 A2987 RMK A01 T01610015  RH  037%=      5-min Rain = 0
KWE1 100118Z 16011KT 16/02 A2987 RMK A01 T01600015  RH  037%=      5-min Rain = 0
KWE1 100119Z 16011KT 16/02 A2987 RMK A01 T01600015  RH  037%=      5-min Rain = 0
KWE1 100120Z 16011KT 16/02 A2987 RMK A01 T01600015  RH  038%=      5-min Rain = 0
KWE1 100121Z 16011KT 16/02 A2987 RMK A01 T01590015  RH  038%=      5-min Rain = 0
KWE1 100122Z 16011KT 16/01 A2987 RMK A01 T01580014  RH  038%=      5-min Rain = 0
KWE1 100123Z 16011KT 16/01 A2987 RMK A01 T01570014  RH  038%=      5-min Rain = 0
KWE1 100124Z 16012KT 16/01 A2987 RMK A01 T01550014  RH  038%=      5-min Rain = 0
KWE1 100125Z 16011KT 16/01 A2987 RMK A01 T01550014  RH  038%=      5-min Rain = 0
KWE1 100126Z 16011KT 16/01 A2987 RMK A01 T01550014  RH  038%=      5-min Rain = 0
KWE1 100127Z 16011KT 15/01 A2988 RMK A01 T01540014  RH  039%=      5-min Rain = 0
KWE1 100128Z 17011KT 15/01 A2988 RMK A01 T01540014  RH  039%=      5-min Rain = 0
KWE1 100129Z 16011KT 15/01 A2988 RMK A01 T01530013  RH  039%=      5-min Rain = 0
KWE1 100130Z 16011KT 15/01 A2988 RMK A01 T01530013  RH  039%=      5-min Rain = 0
KWE1 100131Z 16011KT 15/01 A2987 RMK A01 T01520013  RH  039%=      5-min Rain = 0
KWE1 100132Z 16011KT 15/01 A2987 RMK A01 T01520013  RH  039%=      5-min Rain = 0
KWE1 100133Z 16011KT 15/01 A2987 RMK A01 T01520013  RH  039%=      5-min Rain = 0
KWE1 100134Z 16011KT 15/01 A2987 RMK A01 T01520013  RH  039%=      5-min Rain = 0
KWE1 100135Z 16010KT 15/01 A2987 RMK A01 T01520013  RH  039%=      5-min Rain = 0
KWE1 100136Z 16011KT 15/01 A2987 RMK A01 T01520013  RH  039%=      5-min Rain = 0
KWE1 100137Z 16010KT 15/01 A2987 RMK A01 T01520013  RH  039%=      5-min Rain = 0
KWE1 100138Z 16012KT 15/01 A2987 RMK A01 T01520013  RH  039%=      5-min Rain = 0
KWE1 100139Z 16012KT 15/01 A2987 RMK A01 T01510013  RH  039%=      5-min Rain = 0
KWE1 100140Z 16011KT 15/01 A2987 RMK A01 T01520013  RH  039%=      5-min Rain = 0
KWE1 100141Z 16012KT 15/01 A2987 RMK A01 T01520013  RH  039%=      5-min Rain = 0
KWE1 100142Z 16012KT 15/01 A2987 RMK A01 T01520013  RH  039%=      5-min Rain = 0
KWE1 100143Z 16011KT 15/01 A2987 RMK A01 T01520013  RH  039%=      5-min Rain = 0
KWE1 100144Z 16011KT 15/01 A2987 RMK A01 T01520013  RH  039%=      5-min Rain = 0
KWE1 100145Z 16011KT 15/01 A2987 RMK A01 T01520013  RH  039%=      5-min Rain = 0
KWE1 100146Z 16011KT 15/01 A2987 RMK A01 T01510013  RH  039%=      5-min Rain = 0
KWE1 100147Z 16011KT 15/01 A2987 RMK A01 T01510012  RH  039%=      5-min Rain = 0
KWE1 100148Z 16011KT 15/01 A2987 RMK A01 T01500012  RH  039%=      5-min Rain = 0
KWE1 100149Z 16010KT 15/01 A2987 RMK A01 T01490012  RH  039%=      5-min Rain = 0
KWE1 100150Z 16010KT 15/01 A2987 RMK A01 T01490012  RH  039%=      5-min Rain = 0
KWE1 100151Z 16011KT 15/01 A2987 RMK A01 T01480012  RH  040%=      5-min Rain = 0
KWE1 100152Z 16011KT 15/01 A2987 RMK A01 T01470012  RH  040%=      5-min Rain = 0
KWE1 100153Z 16012KT 15/01 A2987 RMK A01 T01470012  RH  040%=      5-min Rain = 0
KWE1 100154Z 16011KT 15/01 A2987 RMK A01 T01470012  RH  040%=      5-min Rain = 0
KWE1 100155Z 16011KT 15/01 A2987 RMK A01 T01470012  RH  040%=      5-min Rain = 0
KWE1 100156Z 16010KT 15/01 A2987 RMK A01 T01460011  RH  040%=      5-min Rain = 0
KWE1 100157Z 16011KT 15/01 A2987 RMK A01 T01450011  RH  040%=      5-min Rain = 0
KWE1 100158Z 16011KT 14/01 A2987 RMK A01 T01440011  RH  040%=      5-min Rain = 0
KWE1 100159Z 16010KT 14/01 A2987 RMK A01 T01440011  RH  040%=      5-min Rain = 0
KWE1 100200Z 16011KT 14/01 A2987 RMK A01 T01440011  RH  040%=      5-min Rain = 0
KWE1 100201Z 16011KT 14/01 A2987 RMK A01 T01430011  RH  041%=      5-min Rain = 0
KWE1 100202Z 16011KT 14/01 A2987 RMK A01 T01440011  RH  041%=      5-min Rain = 0
KWE1 100203Z 17011KT 14/01 A2987 RMK A01 T01430011  RH  041%=      5-min Rain = 0
KWE1 100204Z 16011KT 14/01 A2987 RMK A01 T01430011  RH  041%=      5-min Rain = 0
KWE1 100205Z 16011KT 14/01 A2987 RMK A01 T01440012  RH  041%=      5-min Rain = 0
KWE1 100206Z 16011KT 14/01 A2987 RMK A01 T01430011  RH  041%=      5-min Rain = 0
KWE1 100207Z 16011KT 14/01 A2987 RMK A01 T01430011  RH  041%=      5-min Rain = 0
KWE1 100208Z 16011KT 14/01 A2987 RMK A01 T01430011  RH  041%=      5-min Rain = 0
KWE1 100209Z 16011KT 14/01 A2987 RMK A01 T01420011  RH  041%=      5-min Rain = 0
KWE1 100210Z 16012KT 14/01 A2987 RMK A01 T01430012  RH  041%=      5-min Rain = 0
KWE1 100211Z 16011KT 14/01 A2987 RMK A01 T01430012  RH  041%=      5-min Rain = 0
KWE1 100212Z 16011KT 14/01 A2987 RMK A01 T01420011  RH  041%=      5-min Rain = 0
KWE1 100213Z 16011KT 14/01 A2987 RMK A01 T01410011  RH  041%=      5-min Rain = 0
KWE1 100214Z 16012KT 14/01 A2987 RMK A01 T01410011  RH  041%=      5-min Rain = 0
KWE1 100215Z 16011KT 14/01 A2987 RMK A01 T01410011  RH  041%=      5-min Rain = 0
KWE1 100216Z 16012KT 14/01 A2987 RMK A01 T01400011  RH  041%=      5-min Rain = 0
KWE1 100217Z 16011KT 14/01 A2987 RMK A01 T01400011  RH  041%=      5-min Rain = 0
KWE1 100218Z 16011KT 14/01 A2987 RMK A01 T01390010  RH  042%=      5-min Rain = 0
KWE1 100219Z 16011KT 14/01 A2987 RMK A01 T01380010  RH  042%=      5-min Rain = 0
KWE1 100220Z 16011KT 14/01 A2987 RMK A01 T01360009  RH  042%=      5-min Rain = 0
KWE1 100221Z 16011KT 14/01 A2987 RMK A01 T01360010  RH  042%=      5-min Rain = 0
KWE1 100222Z 16011KT 14/01 A2987 RMK A01 T01350009  RH  042%=      5-min Rain = 0
KWE1 100223Z 16011KT 13/01 A2987 RMK A01 T01340009  RH  042%=      5-min Rain = 0
KWE1 100224Z 16011KT 13/01 A2987 RMK A01 T01340009  RH  043%=      5-min Rain = 0
KWE1 100225Z 16011KT 13/01 A2987 RMK A01 T01340010  RH  043%=      5-min Rain = 0
KWE1 100226Z 17011KT 13/01 A2987 RMK A01 T01330010  RH  043%=      5-min Rain = 0
KWE1 100227Z 17011KT 13/01 A2987 RMK A01 T01330010  RH  043%=      5-min Rain = 0
KWE1 100228Z 16011KT 13/01 A2987 RMK A01 T01330010  RH  043%=      5-min Rain = 0
KWE1 100229Z 16011KT 13/01 A2987 RMK A01 T01330010  RH  043%=      5-min Rain = 0
KWE1 100230Z 17011KT 13/01 A2987 RMK A01 T01330010  RH  043%=      5-min Rain = 0
KWE1 100231Z 17011KT 13/01 A2987 RMK A01 T01320010  RH  043%=      5-min Rain = 0
KWE1 100232Z 16010KT 13/01 A2987 RMK A01 T01320010  RH  043%=      5-min Rain = 0
KWE1 100233Z 17010KT 13/01 A2987 RMK A01 T01310010  RH  044%=      5-min Rain = 0
KWE1 100234Z 16010KT 13/01 A2986 RMK A01 T01310010  RH  044%=      5-min Rain = 0
KWE1 100235Z 17011KT 13/01 A2986 RMK A01 T01310010  RH  044%=      5-min Rain = 0
KWE1 100236Z 17012KT 13/01 A2986 RMK A01 T01320011  RH  044%=      5-min Rain = 0
KWE1 100237Z 17012KT 13/01 A2986 RMK A01 T01330011  RH  043%=      5-min Rain = 0
KWE1 100238Z 17012KT 13/01 A2986 RMK A01 T01330011  RH  043%=      5-min Rain = 0
KWE1 100239Z 17012KT 13/01 A2986 RMK A01 T01340011  RH  043%=      5-min Rain = 0
KWE1 100240Z 17012KT 13/01 A2986 RMK A01 T01340011  RH  043%=      5-min Rain = 0
KWE1 100241Z 17012KT 14/01 A2986 RMK A01 T01360012  RH  043%=      5-min Rain = 0
KWE1 100242Z 17011KT 14/01 A2986 RMK A01 T01370012  RH  043%=      5-min Rain = 0
KWE1 100243Z 17011KT 14/01 A2986 RMK A01 T01380012  RH  042%=      5-min Rain = 0
KWE1 100244Z 16010KT 14/01 A2986 RMK A01 T01380011  RH  042%=      5-min Rain = 0
KWE1 100245Z 17012KT 14/01 A2986 RMK A01 T01380011  RH  042%=      5-min Rain = 0
KWE1 100246Z 17012KT 14/01 A2986 RMK A01 T01390012  RH  042%=      5-min Rain = 0
KWE1 100247Z 17012KT 14/01 A2986 RMK A01 T01410012  RH  042%=      5-min Rain = 0
KWE1 100248Z 17012KT 14/01 A2986 RMK A01 T01410012  RH  041%=      5-min Rain = 0
KWE1 100249Z 17012KT 14/01 A2986 RMK A01 T01420013  RH  041%=      5-min Rain = 0
KWE1 100250Z 17012KT 14/01 A2987 RMK A01 T01410012  RH  041%=      5-min Rain = 0
KWE1 100251Z 17012KT 14/01 A2987 RMK A01 T01410012  RH  041%=      5-min Rain = 0
KWE1 100252Z 17013KT 14/01 A2987 RMK A01 T01400012  RH  042%=      5-min Rain = 0
KWE1 100253Z 16013KT 14/01 A2987 RMK A01 T01400012  RH  042%=      5-min Rain = 0
KWE1 100254Z 17013KT 14/01 A2987 RMK A01 T01400012  RH  042%=      5-min Rain = 0
KWE1 100255Z 17013KT 14/01 A2987 RMK A01 T01400012  RH  042%=      5-min Rain = 0
KWE1 100256Z 17013KT 14/01 A2987 RMK A01 T01400012  RH  042%=      5-min Rain = 0
KWE1 100257Z 17013KT 14/01 A2987 RMK A01 T01390012  RH  042%=      5-min Rain = 0
KWE1 100258Z 17013KT 14/01 A2987 RMK A01 T01390012  RH  042%=      5-min Rain = 0
KWE1 100259Z 17013KT 14/01 A2987 RMK A01 T01380012  RH  042%=      5-min Rain = 0
KWE1 100300Z 17014KT 14/01 A2987 RMK A01 T01390012  RH  042%=      5-min Rain = 0
KWE1 100301Z 17015KT 14/01 A2987 RMK A01 T01390012  RH  042%=      5-min Rain = 0
KWE1 100302Z 17014KT 14/01 A2987 RMK A01 T01400012  RH  042%=      5-min Rain = 0
KWE1 100303Z 17014KT 14/01 A2987 RMK A01 T01400012  RH  042%=      5-min Rain = 0
KWE1 100304Z 17013KT 14/01 A2987 RMK A01 T01400012  RH  042%=      5-min Rain = 0
KWE1 100305Z 17014KT 14/01 A2987 RMK A01 T01400012  RH  042%=      5-min Rain = 0
KWE1 100306Z 17015KT 14/01 A2987 RMK A01 T01390012  RH  042%=      5-min Rain = 0
KWE1 100307Z 17015KT 14/01 A2987 RMK A01 T01390012  RH  042%=      5-min Rain = 0
KWE1 100308Z 17014KT 14/01 A2987 RMK A01 T01380012  RH  042%=      5-min Rain = 0
KWE1 100309Z 17013KT 14/01 A2987 RMK A01 T01380012  RH  042%=      5-min Rain = 0
KWE1 100310Z 17013KT 14/01 A2986 RMK A01 T01370011  RH  042%=      5-min Rain = 0
KWE1 100311Z 17014KT 14/01 A2986 RMK A01 T01370012  RH  042%=      5-min Rain = 0
KWE1 100312Z 17014KT 14/01 A2986 RMK A01 T01370012  RH  042%=      5-min Rain = 0
KWE1 100313Z 17013KT 14/01 A2986 RMK A01 T01370012  RH  042%=      5-min Rain = 0
KWE1 100314Z 17014KT 14/01 A2986 RMK A01 T01370012  RH  043%=      5-min Rain = 0
KWE1 100315Z 17014KT 14/01 A2986 RMK A01 T01370012  RH  043%=      5-min Rain = 0
KWE1 100316Z 17014KT 14/01 A2986 RMK A01 T01370012  RH  043%=      5-min Rain = 0
KWE1 100317Z 17014KT 14/01 A2986 RMK A01 T01370012  RH  043%=      5-min Rain = 0
KWE1 100318Z 17014KT 14/01 A2986 RMK A01 T01370012  RH  043%=      5-min Rain = 0
KWE1 100319Z 17013KT 14/01 A2986 RMK A01 T01370012  RH  043%=      5-min Rain = 0
KWE1 100320Z 17013KT 14/01 A2986 RMK A01 T01370012  RH  043%=      5-min Rain = 0
KWE1 100321Z 17013KT 14/01 A2986 RMK A01 T01370012  RH  043%=      5-min Rain = 0
KWE1 100322Z 17014KT 14/01 A2986 RMK A01 T01370013  RH  043%=      5-min Rain = 0
KWE1 100323Z 17014KT 14/01 A2986 RMK A01 T01370013  RH  043%=      5-min Rain = 0
KWE1 100324Z 17013KT 14/01 A2986 RMK A01 T01360012  RH  043%=      5-min Rain = 0
KWE1 100325Z 17013KT 14/01 A2986 RMK A01 T01360012  RH  043%=      5-min Rain = 0
KWE1 100326Z 17013KT 13/01 A2986 RMK A01 T01340012  RH  043%=      5-min Rain = 0
KWE1 100327Z 17013KT 13/01 A2986 RMK A01 T01340012  RH  043%=      5-min Rain = 0
KWE1 100328Z 17014KT 13/01 A2986 RMK A01 T01340012  RH  043%=      5-min Rain = 0
KWE1 100329Z 17013KT 13/01 A2986 RMK A01 T01340012  RH  043%=      5-min Rain = 0
KWE1 100330Z 17013KT 13/01 A2986 RMK A01 T01340012  RH  043%=      5-min Rain = 0
KWE1 100331Z 17013KT 13/01 A2986 RMK A01 T01330012  RH  044%=      5-min Rain = 0
KWE1 100332Z 17014KT 13/01 A2987 RMK A01 T01330012  RH  044%=      5-min Rain = 0
KWE1 100333Z 17014KT 13/01 A2987 RMK A01 T01330012  RH  044%=      5-min Rain = 0
KWE1 100334Z 17013KT 13/01 A2987 RMK A01 T01330012  RH  044%=      5-min Rain = 0
KWE1 100335Z 17013KT 13/01 A2987 RMK A01 T01320012  RH  044%=      5-min Rain = 0
KWE1 100336Z 17013KT 13/01 A2987 RMK A01 T01320012  RH  044%=      5-min Rain = 0
KWE1 100337Z 17013KT 13/01 A2987 RMK A01 T01320012  RH  044%=      5-min Rain = 0
KWE1 100338Z 17012KT 13/01 A2987 RMK A01 T01310012  RH  044%=      5-min Rain = 0
KWE1 100339Z 17012KT 13/01 A2987 RMK A01 T01300011  RH  044%=      5-min Rain = 0
KWE1 100340Z 17012KT 13/01 A2987 RMK A01 T01290011  RH  044%=      5-min Rain = 0
KWE1 100341Z 17012KT 13/01 A2987 RMK A01 T01280011  RH  045%=      5-min Rain = 0
KWE1 100342Z 17013KT 13/01 A2987 RMK A01 T01280011  RH  045%=      5-min Rain = 0
KWE1 100343Z 17012KT 13/01 A2987 RMK A01 T01280011  RH  045%=      5-min Rain = 0
KWE1 100344Z 17013KT 13/01 A2987 RMK A01 T01280012  RH  045%=      5-min Rain = 0
KWE1 100345Z 17014KT 13/01 A2987 RMK A01 T01280012  RH  045%=      5-min Rain = 0
KWE1 100346Z 17014KT 13/01 A2987 RMK A01 T01290012  RH  045%=      5-min Rain = 0
KWE1 100347Z 17014KT 13/01 A2987 RMK A01 T01290012  RH  045%=      5-min Rain = 0
KWE1 100348Z 17014KT 13/01 A2987 RMK A01 T01290012  RH  045%=      5-min Rain = 0
KWE1 100349Z 17014KT 13/01 A2987 RMK A01 T01300012  RH  045%=      5-min Rain = 0
KWE1 100350Z 18014KT 13/01 A2987 RMK A01 T01300012  RH  045%=      5-min Rain = 0
KWE1 100351Z 17014KT 13/01 A2987 RMK A01 T01300012  RH  045%=      5-min Rain = 0
KWE1 100352Z 17014KT 13/01 A2987 RMK A01 T01290012  RH  045%=      5-min Rain = 0
KWE1 100353Z 17015KT 13/01 A2986 RMK A01 T01290012  RH  045%=      5-min Rain = 0
KWE1 100354Z 17014KT 13/01 A2986 RMK A01 T01300013  RH  045%=      5-min Rain = 0
KWE1 100355Z 17015KT 13/01 A2987 RMK A01 T01290012  RH  045%=      5-min Rain = 0
KWE1 100356Z 17014KT 13/01 A2986 RMK A01 T01290012  RH  045%=      5-min Rain = 0
KWE1 100357Z 17015KT 13/01 A2986 RMK A01 T01290012  RH  045%=      5-min Rain = 0
KWE1 100358Z 17015KT 13/01 A2986 RMK A01 T01290012  RH  045%=      5-min Rain = 0
KWE1 100359Z 17015KT 13/01 A2986 RMK A01 T01290013  RH  045%=      5-min Rain = 0
KWE1 100400Z 17015KT 13/01 A2986 RMK A01 T01290013  RH  045%=      5-min Rain = 0
KWE1 100401Z 17014KT 13/01 A2986 RMK A01 T01290013  RH  045%=      5-min Rain = 0
KWE1 100402Z 17015KT 13/01 A2986 RMK A01 T01290013  RH  045%=      5-min Rain = 0
KWE1 100403Z 17013KT 13/01 A2986 RMK A01 T01290012  RH  045%=      5-min Rain = 0
KWE1 100404Z 17014KT 13/01 A2986 RMK A01 T01280012  RH  045%=      5-min Rain = 0
KWE1 100405Z 17014KT 13/01 A2986 RMK A01 T01280012  RH  045%=      5-min Rain = 0
KWE1 100406Z 17014KT 13/01 A2986 RMK A01 T01280013  RH  045%=      5-min Rain = 0
KWE1 100407Z 17015KT 13/01 A2986 RMK A01 T01280013  RH  045%=      5-min Rain = 0
KWE1 100408Z 17014KT 13/01 A2986 RMK A01 T01270012  RH  046%=      5-min Rain = 0
KWE1 100409Z 17014KT 13/01 A2986 RMK A01 T01270012  RH  046%=      5-min Rain = 0
KWE1 100410Z 17014KT 13/01 A2986 RMK A01 T01260012  RH  046%=      5-min Rain = 0
KWE1 100411Z 17014KT 13/01 A2986 RMK A01 T01250012  RH  046%=      5-min Rain = 0
KWE1 100412Z 17014KT 12/01 A2986 RMK A01 T01240012  RH  046%=      5-min Rain = 0
KWE1 100413Z 17014KT 12/01 A2986 RMK A01 T01240012  RH  046%=      5-min Rain = 0
KWE1 100414Z 17015KT 12/01 A2986 RMK A01 T01230012  RH  046%=      5-min Rain = 0
KWE1 100415Z 17014KT 12/01 A2986 RMK A01 T01240012  RH  047%=      5-min Rain = 0
KWE1 100416Z 17014KT 12/01 A2986 RMK A01 T01230012  RH  047%=      5-min Rain = 0
KWE1 100417Z 17013KT 12/01 A2986 RMK A01 T01230012  RH  047%=      5-min Rain = 0
KWE1 100418Z 17015KT 12/01 A2986 RMK A01 T01230012  RH  047%=      5-min Rain = 0
KWE1 100419Z 17014KT 12/01 A2986 RMK A01 T01230012  RH  047%=      5-min Rain = 0
KWE1 100420Z 17015KT 12/01 A2986 RMK A01 T01230013  RH  047%=      5-min Rain = 0
KWE1 100421Z 17014KT 12/01 A2986 RMK A01 T01230013  RH  047%=      5-min Rain = 0
KWE1 100422Z 17015KT 12/01 A2986 RMK A01 T01230013  RH  047%=      5-min Rain = 0
KWE1 100423Z 17014KT 12/01 A2986 RMK A01 T01230013  RH  047%=      5-min Rain = 0
KWE1 100424Z 17014KT 12/01 A2986 RMK A01 T01240013  RH  047%=      5-min Rain = 0
KWE1 100425Z 17014KT 12/01 A2986 RMK A01 T01230013  RH  047%=      5-min Rain = 0
KWE1 100426Z 17014KT 12/01 A2986 RMK A01 T01230013  RH  047%=      5-min Rain = 0
KWE1 100427Z 17015KT 12/01 A2985 RMK A01 T01240014  RH  047%=      5-min Rain = 0
KWE1 100428Z 17014KT 13/01 A2985 RMK A01 T01250014  RH  047%=      5-min Rain = 0
KWE1 100429Z 17014KT 13/01 A2985 RMK A01 T01250014  RH  047%=      5-min Rain = 0
KWE1 100430Z 17015KT 13/01 A2985 RMK A01 T01250014  RH  047%=      5-min Rain = 0
KWE1 100431Z 17014KT 13/01 A2985 RMK A01 T01260014  RH  047%=      5-min Rain = 0
KWE1 100432Z 17014KT 13/01 A2985 RMK A01 T01260014  RH  046%=      5-min Rain = 0
KWE1 100433Z 17015KT 13/02 A2985 RMK A01 T01260015  RH  046%=      5-min Rain = 0
KWE1 100434Z 17015KT 13/01 A2985 RMK A01 T01260014  RH  047%=      5-min Rain = 0
KWE1 100435Z 17016KT 13/01 A2985 RMK A01 T01250014  RH  047%=      5-min Rain = 0
KWE1 100436Z 17015KT 13/01 A2986 RMK A01 T01250014  RH  047%=      5-min Rain = 0
KWE1 100437Z 17015KT 13/02 A2986 RMK A01 T01260015  RH  047%=      5-min Rain = 0
KWE1 100438Z 17014KT 13/02 A2986 RMK A01 T01260015  RH  047%=      5-min Rain = 0
KWE1 100439Z 17014KT 13/02 A2986 RMK A01 T01260015  RH  047%=      5-min Rain = 0
KWE1 100440Z 17014KT 13/01 A2986 RMK A01 T01250014  RH  047%=      5-min Rain = 0
KWE1 100441Z 17014KT 13/01 A2986 RMK A01 T01250014  RH  047%=      5-min Rain = 0
KWE1 100442Z 17014KT 13/01 A2986 RMK A01 T01250014  RH  047%=      5-min Rain = 0
KWE1 100443Z 17014KT 12/02 A2986 RMK A01 T01240015  RH  047%=      5-min Rain = 0
KWE1 100444Z 17014KT 12/02 A2986 RMK A01 T01240015  RH  047%=      5-min Rain = 0
KWE1 100445Z 17014KT 12/01 A2986 RMK A01 T01240014  RH  047%=      5-min Rain = 0
KWE1 100446Z 17015KT 12/01 A2986 RMK A01 T01240014  RH  047%=      5-min Rain = 0
KWE1 100447Z 17014KT 12/02 A2986 RMK A01 T01240015  RH  047%=      5-min Rain = 0
KWE1 100448Z 17014KT 12/01 A2986 RMK A01 T01240014  RH  047%=      5-min Rain = 0
KWE1 100449Z 17014KT 13/02 A2986 RMK A01 T01250015  RH  047%=      5-min Rain = 0
KWE1 100450Z 17013KT 13/02 A2986 RMK A01 T01250015  RH  047%=      5-min Rain = 0
KWE1 100451Z 17014KT 13/02 A2986 RMK A01 T01250015  RH  047%=      5-min Rain = 0
KWE1 100452Z 17015KT 13/02 A2986 RMK A01 T01250015  RH  047%=      5-min Rain = 0
KWE1 100453Z 17014KT 13/02 A2986 RMK A01 T01250015  RH  047%=      5-min Rain = 0
KWE1 100454Z 17014KT 13/02 A2986 RMK A01 T01250015  RH  047%=      5-min Rain = 0
KWE1 100455Z 17014KT 13/02 A2986 RMK A01 T01250015  RH  047%=      5-min Rain = 0
KWE1 100456Z 17014KT 12/02 A2986 RMK A01 T01240015  RH  047%=      5-min Rain = 0
KWE1 100457Z 17014KT 12/02 A2986 RMK A01 T01240015  RH  047%=      5-min Rain = 0
KWE1 100458Z 17013KT 13/02 A2986 RMK A01 T01250015  RH  047%=      5-min Rain = 0
KWE1 100459Z 17014KT 12/02 A2986 RMK A01 T01240015  RH  047%=      5-min Rain = 0
KWE1 100500Z 17014KT 12/02 A2986 RMK A01 T01240015  RH  047%=      5-min Rain = 0
KWE1 100501Z 17012KT 12/02 A2986 RMK A01 T01240015  RH  047%=      5-min Rain = 0
KWE1 100502Z 17013KT 12/02 A2986 RMK A01 T01240015  RH  047%=      5-min Rain = 0
KWE1 100503Z 17013KT 12/02 A2986 RMK A01 T01240015  RH  047%=      5-min Rain = 0
KWE1 100504Z 17013KT 12/02 A2986 RMK A01 T01240015  RH  047%=      5-min Rain = 0
KWE1 100505Z 17012KT 12/02 A2986 RMK A01 T01240015  RH  047%=      5-min Rain = 0
KWE1 100506Z 17012KT 12/02 A2986 RMK A01 T01230015  RH  047%=      5-min Rain = 0
KWE1 100507Z 17011KT 12/01 A2986 RMK A01 T01220014  RH  048%=      5-min Rain = 0
KWE1 100508Z 16011KT 12/01 A2986 RMK A01 T01210014  RH  048%=      5-min Rain = 0
KWE1 100509Z 17011KT 12/01 A2986 RMK A01 T01210014  RH  048%=      5-min Rain = 0
KWE1 100510Z 16011KT 12/01 A2986 RMK A01 T01200014  RH  048%=      5-min Rain = 0
KWE1 100511Z 16011KT 12/01 A2986 RMK A01 T01190014  RH  048%=      5-min Rain = 0
KWE1 100512Z 16011KT 12/01 A2986 RMK A01 T01170013  RH  049%=      5-min Rain = 0
KWE1 100513Z 17010KT 12/01 A2986 RMK A01 T01160013  RH  049%=      5-min Rain = 0
KWE1 100514Z 17010KT 12/01 A2986 RMK A01 T01160013  RH  049%=      5-min Rain = 0
KWE1 100515Z 17010KT 12/01 A2986 RMK A01 T01150013  RH  049%=      5-min Rain = 0
KWE1 100516Z 17009KT 11/01 A2986 RMK A01 T01140013  RH  050%=      5-min Rain = 0
KWE1 100517Z 17010KT 11/01 A2986 RMK A01 T01130012  RH  050%=      5-min Rain = 0
KWE1 100518Z 17010KT 11/01 A2986 RMK A01 T01130013  RH  050%=      5-min Rain = 0
KWE1 100519Z 17011KT 11/01 A2986 RMK A01 T01130013  RH  050%=      5-min Rain = 0
KWE1 100520Z 18009KT 11/01 A2986 RMK A01 T01130013  RH  050%=      5-min Rain = 0
KWE1 100521Z 18009KT 11/01 A2986 RMK A01 T01120012  RH  050%=      5-min Rain = 0
KWE1 100522Z 18009KT 11/01 A2986 RMK A01 T01110012  RH  050%=      5-min Rain = 0
KWE1 100523Z 18009KT 11/01 A2986 RMK A01 T01100012  RH  051%=      5-min Rain = 0
KWE1 100524Z 18009KT 11/01 A2986 RMK A01 T01100012  RH  051%=      5-min Rain = 0
KWE1 100525Z 18007KT 11/01 A2986 RMK A01 T01090011  RH  051%=      5-min Rain = 0
KWE1 100526Z 18008KT 11/01 A2986 RMK A01 T01080011  RH  051%=      5-min Rain = 0
KWE1 100527Z 18007KT 11/01 A2986 RMK A01 T01070011  RH  051%=      5-min Rain = 0
KWE1 100528Z 18007KT 11/01 A2986 RMK A01 T01050010  RH  052%=      5-min Rain = 0
KWE1 100529Z 18007KT 10/01 A2986 RMK A01 T01040010  RH  052%=      5-min Rain = 0
KWE1 100530Z 18008KT 10/01 A2986 RMK A01 T01030010  RH  052%=      5-min Rain = 0
KWE1 100531Z 18008KT 10/01 A2986 RMK A01 T01030010  RH  053%=      5-min Rain = 0
KWE1 100532Z 18008KT 10/01 A2986 RMK A01 T01020010  RH  053%=      5-min Rain = 0
KWE1 100533Z 18007KT 10/01 A2986 RMK A01 T01010010  RH  053%=      5-min Rain = 0
KWE1 100534Z 18007KT 10/01 A2986 RMK A01 T01010010  RH  053%=      5-min Rain = 0
KWE1 100535Z 18008KT 10/01 A2986 RMK A01 T01000009  RH  053%=      5-min Rain = 0
KWE1 100536Z 18009KT 10/01 A2986 RMK A01 T01000009  RH  053%=      5-min Rain = 0
KWE1 100537Z 18009KT 10/01 A2986 RMK A01 T00990009  RH  054%=      5-min Rain = 0
KWE1 100538Z 18009KT 10/01 A2985 RMK A01 T00990010  RH  054%=      5-min Rain = 0
KWE1 100539Z 18010KT 10/01 A2985 RMK A01 T01000011  RH  054%=      5-min Rain = 0
KWE1 100540Z 18010KT 10/01 A2985 RMK A01 T01000011  RH  054%=      5-min Rain = 0
KWE1 100541Z 18010KT 10/01 A2985 RMK A01 T01010011  RH  054%=      5-min Rain = 0
KWE1 100542Z 18011KT 10/01 A2985 RMK A01 T01010011  RH  054%=      5-min Rain = 0
KWE1 100543Z 18011KT 10/01 A2985 RMK A01 T01020012  RH  054%=      5-min Rain = 0
KWE1 100544Z 18011KT 10/01 A2985 RMK A01 T01030012  RH  053%=      5-min Rain = 0
KWE1 100545Z 18012KT 10/01 A2985 RMK A01 T01030012  RH  053%=      5-min Rain = 0
KWE1 100546Z 18012KT 10/01 A2985 RMK A01 T01040013  RH  053%=      5-min Rain = 0
KWE1 100547Z 18012KT 10/01 A2985 RMK A01 T01040012  RH  053%=      5-min Rain = 0
KWE1 100548Z 18012KT 10/01 A2985 RMK A01 T01040013  RH  053%=      5-min Rain = 0
KWE1 100549Z 18013KT 11/01 A2985 RMK A01 T01060013  RH  053%=      5-min Rain = 0
KWE1 100550Z 18012KT 11/01 A2985 RMK A01 T01060013  RH  053%=      5-min Rain = 0
KWE1 100551Z 18013KT 11/01 A2985 RMK A01 T01060013  RH  053%=      5-min Rain = 0
KWE1 100552Z 18013KT 11/01 A2985 RMK A01 T01060013  RH  053%=      5-min Rain = 0
KWE1 100553Z 18013KT 11/01 A2985 RMK A01 T01070013  RH  052%=      5-min Rain = 0
KWE1 100554Z 18013KT 11/01 A2985 RMK A01 T01070013  RH  053%=      5-min Rain = 0
KWE1 100555Z 18013KT 11/01 A2985 RMK A01 T01060013  RH  053%=      5-min Rain = 0
KWE1 100556Z 18013KT 11/01 A2985 RMK A01 T01070014  RH  052%=      5-min Rain = 0
KWE1 100557Z 18013KT 11/01 A2985 RMK A01 T01070014  RH  052%=      5-min Rain = 0
KWE1 100558Z 18014KT 11/01 A2985 RMK A01 T01080014  RH  052%=      5-min Rain = 0
KWE1 100559Z 18013KT 11/01 A2985 RMK A01 T01080014  RH  052%=      5-min Rain = 0

Page generated in 0.0701 seconds.